Observation data for Crane on 02/15/2020      Previous  Date  Next       Current Mesonet Observations  Soil Data  Daily Summary Page  Observations in Plain Language
KCR2 150600Z 18009KT 07/03 A3015 RMK A01 T00730029  RH  074%=      5-min Rain = 0
KCR2 150601Z 18011KT 07/03 A3015 RMK A01 T00730030  RH  074%=      5-min Rain = 0
KCR2 150602Z 17010KT 07/03 A3015 RMK A01 T00740030  RH  074%=      5-min Rain = 0
KCR2 150603Z 18009KT 07/03 A3015 RMK A01 T00740030  RH  074%=      5-min Rain = 0
KCR2 150604Z 18011KT 07/03 A3015 RMK A01 T00740030  RH  074%=      5-min Rain = 0
KCR2 150605Z 18011KT 07/03 A3015 RMK A01 T00740030  RH  073%=      5-min Rain = 0
KCR2 150606Z 17010KT 07/03 A3015 RMK A01 T00740030  RH  073%=      5-min Rain = 0
KCR2 150607Z 18010KT 08/03 A3015 RMK A01 T00750030  RH  073%=      5-min Rain = 0
KCR2 150608Z 18010KT 08/03 A3015 RMK A01 T00750030  RH  073%=      5-min Rain = 0
KCR2 150609Z 17012KT 07/03 A3015 RMK A01 T00740030  RH  074%=      5-min Rain = 0
KCR2 150610Z 19010KT 07/03 A3015 RMK A01 T00740030  RH  074%=      5-min Rain = 0
KCR2 150611Z 18012KT 07/03 A3015 RMK A01 T00740030  RH  074%=      5-min Rain = 0
KCR2 150612Z 18010KT 07/03 A3015 RMK A01 T00740030  RH  074%=      5-min Rain = 0
KCR2 150613Z 17011KT 07/03 A3015 RMK A01 T00740030  RH  074%=      5-min Rain = 0
KCR2 150614Z 18010KT 07/03 A3015 RMK A01 T00740030  RH  074%=      5-min Rain = 0
KCR2 150615Z 18009KT 07/03 A3015 RMK A01 T00740030  RH  074%=      5-min Rain = 0
KCR2 150616Z 18011KT 07/03 A3015 RMK A01 T00740030  RH  074%=      5-min Rain = 0
KCR2 150617Z 18009KT 07/03 A3015 RMK A01 T00730030  RH  074%=      5-min Rain = 0
KCR2 150618Z 18008KT 07/03 A3015 RMK A01 T00730030  RH  074%=      5-min Rain = 0
KCR2 150619Z 18010KT 07/03 A3015 RMK A01 T00730030  RH  074%=      5-min Rain = 0
KCR2 150620Z 18010KT 07/03 A3015 RMK A01 T00740030  RH  074%=      5-min Rain = 0
KCR2 150621Z 18009KT 07/03 A3015 RMK A01 T00740030  RH  074%=      5-min Rain = 0
KCR2 150622Z 18010KT 07/03 A3015 RMK A01 T00730030  RH  074%=      5-min Rain = 0
KCR2 150623Z 18008KT 07/03 A3015 RMK A01 T00730030  RH  074%=      5-min Rain = 0
KCR2 150624Z 18009KT 07/03 A3015 RMK A01 T00720030  RH  074%=      5-min Rain = 0
KCR2 150625Z 17010KT 07/03 A3015 RMK A01 T00720030  RH  075%=      5-min Rain = 0
KCR2 150626Z 18010KT 07/03 A3015 RMK A01 T00720030  RH  074%=      5-min Rain = 0
KCR2 150627Z 18009KT 07/03 A3015 RMK A01 T00730030  RH  074%=      5-min Rain = 0
KCR2 150628Z 18011KT 07/03 A3015 RMK A01 T00730030  RH  074%=      5-min Rain = 0
KCR2 150629Z 18012KT 07/03 A3015 RMK A01 T00730030  RH  074%=      5-min Rain = 0
KCR2 150630Z 18011KT 07/03 A3015 RMK A01 T00730030  RH  074%=      5-min Rain = 0
KCR2 150631Z 18012KT 07/03 A3015 RMK A01 T00740030  RH  074%=      5-min Rain = 0
KCR2 150632Z 18011KT 07/03 A3015 RMK A01 T00740030  RH  074%=      5-min Rain = 0
KCR2 150633Z 17012KT 07/03 A3015 RMK A01 T00740030  RH  074%=      5-min Rain = 0
KCR2 150634Z 17013KT 07/03 A3015 RMK A01 T00740030  RH  074%=      5-min Rain = 0
KCR2 150635Z 17009KT 07/03 A3015 RMK A01 T00730030  RH  074%=      5-min Rain = 0
KCR2 150636Z 17010KT 07/03 A3015 RMK A01 T00730030  RH  074%=      5-min Rain = 0
KCR2 150637Z 18009KT 07/03 A3015 RMK A01 T00730030  RH  074%=      5-min Rain = 0
KCR2 150638Z 18009KT 07/03 A3015 RMK A01 T00730030  RH  074%=      5-min Rain = 0
KCR2 150639Z 18010KT 07/03 A3015 RMK A01 T00730030  RH  075%=      5-min Rain = 0
KCR2 150640Z 17010KT 07/03 A3015 RMK A01 T00720031  RH  075%=      5-min Rain = 0
KCR2 150641Z 17010KT 07/03 A3015 RMK A01 T00720030  RH  075%=      5-min Rain = 0
KCR2 150642Z 18011KT 07/03 A3015 RMK A01 T00720031  RH  075%=      5-min Rain = 0
KCR2 150643Z 19009KT 07/03 A3015 RMK A01 T00720030  RH  075%=      5-min Rain = 0
KCR2 150644Z 18010KT 07/03 A3015 RMK A01 T00720030  RH  075%=      5-min Rain = 0
KCR2 150645Z 18010KT 07/03 A3015 RMK A01 T00720030  RH  075%=      5-min Rain = 0
KCR2 150646Z 18010KT 07/03 A3015 RMK A01 T00720030  RH  075%=      5-min Rain = 0
KCR2 150647Z 18009KT 07/03 A3015 RMK A01 T00720030  RH  075%=      5-min Rain = 0
KCR2 150648Z 18011KT 07/03 A3015 RMK A01 T00720031  RH  075%=      5-min Rain = 0
KCR2 150649Z 18011KT 07/03 A3015 RMK A01 T00720030  RH  075%=      5-min Rain = 0
KCR2 150650Z 18010KT 07/03 A3015 RMK A01 T00720030  RH  075%=      5-min Rain = 0
KCR2 150651Z 18010KT 07/03 A3015 RMK A01 T00720030  RH  075%=      5-min Rain = 0
KCR2 150652Z 18008KT 07/03 A3015 RMK A01 T00720030  RH  075%=      5-min Rain = 0
KCR2 150653Z 18009KT 07/03 A3015 RMK A01 T00720030  RH  075%=      5-min Rain = 0
KCR2 150654Z 18008KT 07/03 A3015 RMK A01 T00720030  RH  075%=      5-min Rain = 0
KCR2 150655Z 18009KT 07/03 A3015 RMK A01 T00710030  RH  075%=      5-min Rain = 0
KCR2 150656Z 18009KT 07/03 A3015 RMK A01 T00710030  RH  075%=      5-min Rain = 0
KCR2 150657Z 18011KT 07/03 A3015 RMK A01 T00720030  RH  075%=      5-min Rain = 0
KCR2 150658Z 18011KT 07/03 A3015 RMK A01 T00720030  RH  075%=      5-min Rain = 0
KCR2 150659Z 18010KT 07/03 A3015 RMK A01 T00720030  RH  075%=      5-min Rain = 0
KCR2 150700Z 18008KT 07/03 A3015 RMK A01 T00720030  RH  075%=      5-min Rain = 0
KCR2 150701Z 18011KT 07/03 A3015 RMK A01 T00710030  RH  075%=      5-min Rain = 0
KCR2 150702Z 18010KT 07/03 A3015 RMK A01 T00710030  RH  075%=      5-min Rain = 0
KCR2 150703Z 18011KT 07/03 A3015 RMK A01 T00720031  RH  075%=      5-min Rain = 0
KCR2 150704Z 18010KT 07/03 A3015 RMK A01 T00720030  RH  075%=      5-min Rain = 0
KCR2 150705Z 18009KT 07/03 A3014 RMK A01 T00710030  RH  075%=      5-min Rain = 0
KCR2 150706Z 18009KT 07/03 A3014 RMK A01 T00710030  RH  075%=      5-min Rain = 0
KCR2 150707Z 19009KT 07/03 A3014 RMK A01 T00700030  RH  076%=      5-min Rain = 0
KCR2 150708Z 18010KT 07/03 A3014 RMK A01 T00700030  RH  076%=      5-min Rain = 0
KCR2 150709Z 18010KT 07/03 A3014 RMK A01 T00710030  RH  075%=      5-min Rain = 0
KCR2 150710Z 18010KT 07/03 A3014 RMK A01 T00720030  RH  075%=      5-min Rain = 0
KCR2 150711Z 18008KT 07/03 A3014 RMK A01 T00710030  RH  075%=      5-min Rain = 0
KCR2 150712Z 19008KT 07/03 A3014 RMK A01 T00700030  RH  075%=      5-min Rain = 0
KCR2 150713Z 18010KT 07/03 A3014 RMK A01 T00690030  RH  076%=      5-min Rain = 0
KCR2 150714Z 19009KT 07/03 A3014 RMK A01 T00700030  RH  076%=      5-min Rain = 0
KCR2 150715Z 18008KT 07/03 A3014 RMK A01 T00710030  RH  075%=      5-min Rain = 0
KCR2 150716Z 18009KT 07/03 A3014 RMK A01 T00710030  RH  075%=      5-min Rain = 0
KCR2 150717Z 18008KT 07/03 A3014 RMK A01 T00720030  RH  075%=      5-min Rain = 0
KCR2 150718Z 19007KT 07/03 A3015 RMK A01 T00710030  RH  075%=      5-min Rain = 0
KCR2 150719Z 19008KT 07/03 A3015 RMK A01 T00710030  RH  075%=      5-min Rain = 0
KCR2 150720Z 19007KT 07/03 A3015 RMK A01 T00710030  RH  075%=      5-min Rain = 0
KCR2 150721Z 19007KT 07/03 A3015 RMK A01 T00720030  RH  075%=      5-min Rain = 0
KCR2 150722Z 19007KT 07/03 A3015 RMK A01 T00710030  RH  075%=      5-min Rain = 0
KCR2 150723Z 18007KT 07/03 A3015 RMK A01 T00710030  RH  075%=      5-min Rain = 0
KCR2 150724Z 18006KT 07/03 A3015 RMK A01 T00700030  RH  075%=      5-min Rain = 0
KCR2 150725Z 19007KT 07/03 A3015 RMK A01 T00700030  RH  076%=      5-min Rain = 0
KCR2 150726Z 19006KT 07/03 A3015 RMK A01 T00700030  RH  076%=      5-min Rain = 0
KCR2 150727Z 19006KT 07/03 A3015 RMK A01 T00690030  RH  076%=      5-min Rain = 0
KCR2 150728Z 19006KT 07/03 A3015 RMK A01 T00690030  RH  076%=      5-min Rain = 0
KCR2 150729Z 19005KT 07/03 A3015 RMK A01 T00690030  RH  076%=      5-min Rain = 0
KCR2 150730Z 18006KT 07/03 A3015 RMK A01 T00680029  RH  076%=      5-min Rain = 0
KCR2 150731Z 19006KT 07/03 A3015 RMK A01 T00680029  RH  076%=      5-min Rain = 0
KCR2 150732Z 18007KT 07/03 A3015 RMK A01 T00690030  RH  076%=      5-min Rain = 0
KCR2 150733Z 19007KT 07/03 A3015 RMK A01 T00690029  RH  076%=      5-min Rain = 0
KCR2 150734Z 19006KT 07/03 A3015 RMK A01 T00700030  RH  076%=      5-min Rain = 0
KCR2 150735Z 19006KT 07/03 A3015 RMK A01 T00690029  RH  076%=      5-min Rain = 0
KCR2 150736Z 18006KT 07/03 A3015 RMK A01 T00690030  RH  076%=      5-min Rain = 0
KCR2 150737Z 18007KT 07/03 A3015 RMK A01 T00680029  RH  076%=      5-min Rain = 0
KCR2 150738Z 18007KT 07/03 A3015 RMK A01 T00680029  RH  076%=      5-min Rain = 0
KCR2 150739Z 18007KT 07/03 A3015 RMK A01 T00680029  RH  076%=      5-min Rain = 0
KCR2 150740Z 18007KT 07/03 A3015 RMK A01 T00680029  RH  076%=      5-min Rain = 0
KCR2 150741Z 17006KT 07/03 A3015 RMK A01 T00690030  RH  076%=      5-min Rain = 0
KCR2 150742Z 18006KT 07/03 A3014 RMK A01 T00680029  RH  076%=      5-min Rain = 0
KCR2 150743Z 18007KT 07/03 A3014 RMK A01 T00670029  RH  077%=      5-min Rain = 0
KCR2 150744Z 18006KT 07/03 A3014 RMK A01 T00670029  RH  077%=      5-min Rain = 0
KCR2 150745Z 18007KT 07/03 A3014 RMK A01 T00680029  RH  076%=      5-min Rain = 0
KCR2 150746Z 18007KT 07/03 A3014 RMK A01 T00670029  RH  077%=      5-min Rain = 0
KCR2 150747Z 18007KT 07/03 A3014 RMK A01 T00670029  RH  077%=      5-min Rain = 0
KCR2 150748Z 19007KT 07/03 A3014 RMK A01 T00660029  RH  077%=      5-min Rain = 0
KCR2 150749Z 19007KT 07/03 A3014 RMK A01 T00650028  RH  077%=      5-min Rain = 0
KCR2 150750Z 18007KT 06/03 A3014 RMK A01 T00640029  RH  078%=      5-min Rain = 0
KCR2 150751Z 18007KT 06/03 A3014 RMK A01 T00640029  RH  078%=      5-min Rain = 0
KCR2 150752Z 18007KT 06/03 A3014 RMK A01 T00640029  RH  078%=      5-min Rain = 0
KCR2 150753Z 18007KT 06/03 A3014 RMK A01 T00640029  RH  078%=      5-min Rain = 0
KCR2 150754Z 18007KT 07/03 A3014 RMK A01 T00650029  RH  078%=      5-min Rain = 0
KCR2 150755Z 18006KT 07/03 A3014 RMK A01 T00650029  RH  078%=      5-min Rain = 0
KCR2 150756Z 18007KT 07/03 A3014 RMK A01 T00650029  RH  078%=      5-min Rain = 0
KCR2 150757Z 18007KT 07/03 A3014 RMK A01 T00650029  RH  078%=      5-min Rain = 0
KCR2 150758Z 18007KT 07/03 A3014 RMK A01 T00650029  RH  078%=      5-min Rain = 0
KCR2 150759Z 18007KT 06/03 A3014 RMK A01 T00640029  RH  078%=      5-min Rain = 0
KCR2 150800Z 18007KT 06/03 A3014 RMK A01 T00640029  RH  078%=      5-min Rain = 0
KCR2 150801Z 19007KT 07/03 A3014 RMK A01 T00650029  RH  078%=      5-min Rain = 0
KCR2 150802Z 19007KT 07/03 A3014 RMK A01 T00650029  RH  077%=      5-min Rain = 0
KCR2 150803Z 18006KT 07/03 A3014 RMK A01 T00650029  RH  078%=      5-min Rain = 0
KCR2 150804Z 18006KT 06/03 A3014 RMK A01 T00640029  RH  078%=      5-min Rain = 0
KCR2 150805Z 18007KT 06/03 A3014 RMK A01 T00640028  RH  078%=      5-min Rain = 0
KCR2 150806Z 18006KT 06/03 A3014 RMK A01 T00640029  RH  078%=      5-min Rain = 0
KCR2 150807Z 18007KT 06/03 A3014 RMK A01 T00630028  RH  078%=      5-min Rain = 0
KCR2 150808Z 18006KT 06/03 A3014 RMK A01 T00630029  RH  078%=      5-min Rain = 0
KCR2 150809Z 18006KT 06/03 A3014 RMK A01 T00630028  RH  078%=      5-min Rain = 0
KCR2 150810Z 18006KT 06/03 A3014 RMK A01 T00630029  RH  078%=      5-min Rain = 0
KCR2 150811Z 19006KT 06/03 A3014 RMK A01 T00630028  RH  078%=      5-min Rain = 0
KCR2 150812Z 19006KT 06/03 A3014 RMK A01 T00620028  RH  079%=      5-min Rain = 0
KCR2 150813Z 18008KT 06/03 A3014 RMK A01 T00620028  RH  079%=      5-min Rain = 0
KCR2 150814Z 19006KT 06/03 A3014 RMK A01 T00630029  RH  079%=      5-min Rain = 0
KCR2 150815Z 18006KT 06/03 A3014 RMK A01 T00630029  RH  078%=      5-min Rain = 0
KCR2 150816Z 18006KT 06/03 A3014 RMK A01 T00630029  RH  078%=      5-min Rain = 0
KCR2 150817Z 18005KT 06/03 A3014 RMK A01 T00630028  RH  078%=      5-min Rain = 0
KCR2 150818Z 18005KT 06/03 A3014 RMK A01 T00620028  RH  079%=      5-min Rain = 0
KCR2 150819Z 19007KT 06/03 A3014 RMK A01 T00620028  RH  079%=      5-min Rain = 0
KCR2 150820Z 18006KT 06/03 A3014 RMK A01 T00610028  RH  079%=      5-min Rain = 0
KCR2 150821Z 18006KT 06/03 A3014 RMK A01 T00620028  RH  079%=      5-min Rain = 0
KCR2 150822Z 18006KT 06/03 A3014 RMK A01 T00610028  RH  079%=      5-min Rain = 0
KCR2 150823Z 18006KT 06/03 A3014 RMK A01 T00610028  RH  079%=      5-min Rain = 0
KCR2 150824Z 18005KT 06/03 A3014 RMK A01 T00600027  RH  080%=      5-min Rain = 0
KCR2 150825Z 19005KT 06/03 A3013 RMK A01 T00590027  RH  080%=      5-min Rain = 0
KCR2 150826Z 19005KT 06/03 A3013 RMK A01 T00580027  RH  080%=      5-min Rain = 0
KCR2 150827Z 19005KT 06/03 A3013 RMK A01 T00580027  RH  081%=      5-min Rain = 0
KCR2 150828Z 19005KT 06/03 A3013 RMK A01 T00570027  RH  081%=      5-min Rain = 0
KCR2 150829Z 19005KT 06/03 A3013 RMK A01 T00570027  RH  081%=      5-min Rain = 0
KCR2 150830Z 18005KT 06/03 A3013 RMK A01 T00570027  RH  081%=      5-min Rain = 0
KCR2 150831Z 18005KT 06/03 A3013 RMK A01 T00570027  RH  081%=      5-min Rain = 0
KCR2 150832Z 18006KT 06/03 A3013 RMK A01 T00570027  RH  081%=      5-min Rain = 0
KCR2 150833Z 18006KT 06/03 A3013 RMK A01 T00570028  RH  081%=      5-min Rain = 0
KCR2 150834Z 18007KT 06/03 A3013 RMK A01 T00580028  RH  081%=      5-min Rain = 0
KCR2 150835Z 18007KT 06/03 A3013 RMK A01 T00580028  RH  081%=      5-min Rain = 0
KCR2 150836Z 18006KT 06/03 A3013 RMK A01 T00580028  RH  081%=      5-min Rain = 0
KCR2 150837Z 18007KT 06/03 A3013 RMK A01 T00580028  RH  081%=      5-min Rain = 0
KCR2 150838Z 18007KT 06/03 A3013 RMK A01 T00580029  RH  081%=      5-min Rain = 0
KCR2 150839Z 18007KT 06/03 A3013 RMK A01 T00580028  RH  081%=      5-min Rain = 0
KCR2 150840Z 18006KT 06/03 A3013 RMK A01 T00590029  RH  081%=      5-min Rain = 0
KCR2 150841Z 18006KT 06/03 A3013 RMK A01 T00590028  RH  081%=      5-min Rain = 0
KCR2 150842Z 18006KT 06/03 A3013 RMK A01 T00590029  RH  081%=      5-min Rain = 0
KCR2 150843Z 18005KT 06/03 A3013 RMK A01 T00590029  RH  081%=      5-min Rain = 0
KCR2 150844Z 18006KT 06/03 A3013 RMK A01 T00590029  RH  081%=      5-min Rain = 0
KCR2 150845Z 18006KT 06/03 A3013 RMK A01 T00590028  RH  081%=      5-min Rain = 0
KCR2 150846Z 18007KT 06/03 A3013 RMK A01 T00590028  RH  081%=      5-min Rain = 0
KCR2 150847Z 18006KT 06/03 A3013 RMK A01 T00580028  RH  081%=      5-min Rain = 0
KCR2 150848Z 18006KT 06/03 A3013 RMK A01 T00580028  RH  081%=      5-min Rain = 0
KCR2 150849Z 18006KT 06/03 A3013 RMK A01 T00580029  RH  081%=      5-min Rain = 0
KCR2 150850Z 18006KT 06/03 A3013 RMK A01 T00580029  RH  081%=      5-min Rain = 0
KCR2 150851Z 18006KT 06/03 A3013 RMK A01 T00580029  RH  081%=      5-min Rain = 0
KCR2 150852Z 18006KT 06/03 A3013 RMK A01 T00590029  RH  081%=      5-min Rain = 0
KCR2 150853Z 18006KT 06/03 A3013 RMK A01 T00590029  RH  081%=      5-min Rain = 0
KCR2 150854Z 18006KT 06/03 A3013 RMK A01 T00600030  RH  081%=      5-min Rain = 0
KCR2 150855Z 18008KT 06/03 A3013 RMK A01 T00610030  RH  081%=      5-min Rain = 0
KCR2 150856Z 18008KT 06/03 A3012 RMK A01 T00620031  RH  080%=      5-min Rain = 0
KCR2 150857Z 18008KT 06/03 A3012 RMK A01 T00630031  RH  080%=      5-min Rain = 0
KCR2 150858Z 18009KT 06/03 A3012 RMK A01 T00630031  RH  080%=      5-min Rain = 0
KCR2 150859Z 18009KT 06/03 A3012 RMK A01 T00630031  RH  080%=      5-min Rain = 0
KCR2 150900Z 18008KT 06/03 A3012 RMK A01 T00630031  RH  080%=      5-min Rain = 0
KCR2 150901Z 18008KT 06/03 A3012 RMK A01 T00630031  RH  080%=      5-min Rain = 0
KCR2 150902Z 18008KT 06/03 A3012 RMK A01 T00630032  RH  080%=      5-min Rain = 0
KCR2 150903Z 18009KT 06/03 A3012 RMK A01 T00630032  RH  080%=      5-min Rain = 0
KCR2 150904Z 19008KT 06/03 A3012 RMK A01 T00630032  RH  080%=      5-min Rain = 0
KCR2 150905Z 18009KT 06/03 A3012 RMK A01 T00630032  RH  080%=      5-min Rain = 0
KCR2 150906Z 19009KT 06/03 A3012 RMK A01 T00640032  RH  080%=      5-min Rain = 0
KCR2 150907Z 18007KT 07/03 A3012 RMK A01 T00650033  RH  080%=      5-min Rain = 0
KCR2 150908Z 19008KT 07/03 A3012 RMK A01 T00650032  RH  080%=      5-min Rain = 0
KCR2 150909Z 18008KT 06/03 A3012 RMK A01 T00640032  RH  080%=      5-min Rain = 0
KCR2 150910Z 18010KT 06/03 A3012 RMK A01 T00640033  RH  080%=      5-min Rain = 0
KCR2 150911Z 19009KT 07/03 A3012 RMK A01 T00660034  RH  080%=      5-min Rain = 0
KCR2 150912Z 19010KT 07/03 A3012 RMK A01 T00670034  RH  079%=      5-min Rain = 0
KCR2 150913Z 18009KT 07/03 A3012 RMK A01 T00680034  RH  079%=      5-min Rain = 0
KCR2 150914Z 18008KT 07/03 A3012 RMK A01 T00680034  RH  079%=      5-min Rain = 0
KCR2 150915Z 18010KT 07/03 A3012 RMK A01 T00680034  RH  078%=      5-min Rain = 0
KCR2 150916Z 18010KT 07/03 A3012 RMK A01 T00680034  RH  079%=      5-min Rain = 0
KCR2 150917Z 18008KT 07/03 A3012 RMK A01 T00680034  RH  079%=      5-min Rain = 0
KCR2 150918Z 18008KT 07/03 A3012 RMK A01 T00680034  RH  079%=      5-min Rain = 0
KCR2 150919Z 18009KT 07/03 A3012 RMK A01 T00680034  RH  079%=      5-min Rain = 0
KCR2 150920Z 19009KT 07/03 A3012 RMK A01 T00690034  RH  079%=      5-min Rain = 0
KCR2 150921Z 19008KT 07/03 A3012 RMK A01 T00690034  RH  078%=      5-min Rain = 0
KCR2 150922Z 18009KT 07/03 A3013 RMK A01 T00690034  RH  078%=      5-min Rain = 0
KCR2 150923Z 19009KT 07/03 A3013 RMK A01 T00680034  RH  079%=      5-min Rain = 0
KCR2 150924Z 19009KT 07/03 A3012 RMK A01 T00690034  RH  079%=      5-min Rain = 0
KCR2 150925Z 19008KT 07/04 A3012 RMK A01 T00700035  RH  078%=      5-min Rain = 0
KCR2 150926Z 19009KT 07/04 A3012 RMK A01 T00700035  RH  078%=      5-min Rain = 0
KCR2 150927Z 19009KT 07/04 A3012 RMK A01 T00710035  RH  078%=      5-min Rain = 0
KCR2 150928Z 19010KT 07/04 A3012 RMK A01 T00710035  RH  077%=      5-min Rain = 0
KCR2 150929Z 19011KT 07/04 A3012 RMK A01 T00720035  RH  077%=      5-min Rain = 0
KCR2 150930Z 19012KT 07/04 A3012 RMK A01 T00720035  RH  078%=      5-min Rain = 0
KCR2 150931Z 18010KT 07/04 A3012 RMK A01 T00720035  RH  077%=      5-min Rain = 0
KCR2 150932Z 19010KT 07/04 A3012 RMK A01 T00720035  RH  077%=      5-min Rain = 0
KCR2 150933Z 18011KT 07/04 A3012 RMK A01 T00710035  RH  078%=      5-min Rain = 0
KCR2 150934Z 18012KT 07/04 A3012 RMK A01 T00710035  RH  078%=      5-min Rain = 0
KCR2 150935Z 18010KT 07/04 A3012 RMK A01 T00710035  RH  078%=      5-min Rain = 0
KCR2 150936Z 18011KT 07/04 A3012 RMK A01 T00710035  RH  078%=      5-min Rain = 0
KCR2 150937Z 19010KT 07/04 A3012 RMK A01 T00710035  RH  078%=      5-min Rain = 0
KCR2 150938Z 19010KT 07/04 A3012 RMK A01 T00710035  RH  078%=      5-min Rain = 0
KCR2 150939Z 18011KT 07/04 A3012 RMK A01 T00710035  RH  078%=      5-min Rain = 0
KCR2 150940Z 19010KT 07/04 A3012 RMK A01 T00710035  RH  078%=      5-min Rain = 0
KCR2 150941Z 18011KT 07/04 A3012 RMK A01 T00710036  RH  078%=      5-min Rain = 0
KCR2 150942Z 18010KT 07/04 A3012 RMK A01 T00710035  RH  078%=      5-min Rain = 0
KCR2 150943Z 19011KT 07/04 A3012 RMK A01 T00710035  RH  078%=      5-min Rain = 0
KCR2 150944Z 18011KT 07/04 A3012 RMK A01 T00710035  RH  078%=      5-min Rain = 0
KCR2 150945Z 19010KT 07/04 A3012 RMK A01 T00710035  RH  078%=      5-min Rain = 0
KCR2 150946Z 19010KT 07/04 A3012 RMK A01 T00700035  RH  078%=      5-min Rain = 0
KCR2 150947Z 19013KT 07/04 A3012 RMK A01 T00700035  RH  078%=      5-min Rain = 0
KCR2 150948Z 18011KT 07/04 A3012 RMK A01 T00710036  RH  078%=      5-min Rain = 0
KCR2 150949Z 18013KT 07/04 A3012 RMK A01 T00720035  RH  078%=      5-min Rain = 0
KCR2 150950Z 18011KT 07/04 A3012 RMK A01 T00720036  RH  078%=      5-min Rain = 0
KCR2 150951Z 18012KT 07/04 A3012 RMK A01 T00720036  RH  078%=      5-min Rain = 0
KCR2 150952Z 18010KT 07/04 A3012 RMK A01 T00720036  RH  078%=      5-min Rain = 0
KCR2 150953Z 18011KT 07/04 A3012 RMK A01 T00710035  RH  078%=      5-min Rain = 0
KCR2 150954Z 18014KT 07/04 A3012 RMK A01 T00710035  RH  078%=      5-min Rain = 0
KCR2 150955Z 18014KT 07/04 A3011 RMK A01 T00710036  RH  078%=      5-min Rain = 0
KCR2 150956Z 18014KT 07/04 A3011 RMK A01 T00710035  RH  078%=      5-min Rain = 0
KCR2 150957Z 18013KT 07/04 A3011 RMK A01 T00720036  RH  078%=      5-min Rain = 0
KCR2 150958Z 18013KT 07/04 A3011 RMK A01 T00720036  RH  078%=      5-min Rain = 0
KCR2 150959Z 18014KT 07/04 A3011 RMK A01 T00720035  RH  078%=      5-min Rain = 0
KCR2 151000Z 18014KT 07/04 A3011 RMK A01 T00720036  RH  078%=      5-min Rain = 0
KCR2 151001Z 18012KT 07/04 A3011 RMK A01 T00720036  RH  078%=      5-min Rain = 0
KCR2 151002Z 18012KT 07/04 A3011 RMK A01 T00720036  RH  078%=      5-min Rain = 0
KCR2 151003Z 18013G19KT 07/04 A3011 RMK A01 T00720036  RH  078%=      5-min Rain = 0
KCR2 151004Z 18016KT 07/04 A3011 RMK A01 T00720036  RH  078%=      5-min Rain = 0
KCR2 151005Z 18013KT 07/04 A3011 RMK A01 T00730036  RH  078%=      5-min Rain = 0
KCR2 151006Z 18016KT 07/04 A3011 RMK A01 T00730036  RH  078%=      5-min Rain = 0
KCR2 151007Z 18016KT 07/04 A3011 RMK A01 T00730036  RH  078%=      5-min Rain = 0
KCR2 151008Z 17015KT 07/04 A3011 RMK A01 T00730036  RH  077%=      5-min Rain = 0
KCR2 151009Z 18016KT 07/04 A3011 RMK A01 T00730037  RH  077%=      5-min Rain = 0
KCR2 151010Z 17018KT 07/04 A301 RMK A01 T00730037  RH  077%=      5-min Rain = 0
KCR2 151011Z 18019KT 07/04 A301 RMK A01 T00730037  RH  077%=      5-min Rain = 0
KCR2 151012Z 18016KT 07/04 A3011 RMK A01 T00740037  RH  077%=      5-min Rain = 0
KCR2 151013Z 18016G21KT 08/04 A3011 RMK A01 T00750036  RH  077%=      5-min Rain = 0
KCR2 151014Z 18015KT 08/04 A3011 RMK A01 T00750036  RH  077%=      5-min Rain = 0
KCR2 151015Z 18018KT 07/04 A301 RMK A01 T00740037  RH  077%=      5-min Rain = 0
KCR2 151016Z 18016KT 08/04 A301 RMK A01 T00750037  RH  077%=      5-min Rain = 0
KCR2 151017Z 18018KT 08/04 A301 RMK A01 T00750037  RH  077%=      5-min Rain = 0
KCR2 151018Z 18019KT 08/04 A301 RMK A01 T00750037  RH  077%=      5-min Rain = 0
KCR2 151019Z 18019KT 08/04 A301 RMK A01 T00750037  RH  077%=      5-min Rain = 0
KCR2 151020Z 18017KT 08/04 A301 RMK A01 T00750037  RH  077%=      5-min Rain = 0
KCR2 151021Z 18016G21KT 08/04 A301 RMK A01 T00750037  RH  077%=      5-min Rain = 0
KCR2 151022Z 18017KT 07/04 A301 RMK A01 T00740037  RH  077%=      5-min Rain = 0
KCR2 151023Z 18017KT 07/04 A301 RMK A01 T00740036  RH  077%=      5-min Rain = 0
KCR2 151024Z 18017KT 08/04 A301 RMK A01 T00750037  RH  077%=      5-min Rain = 0
KCR2 151025Z 18016KT 07/04 A301 RMK A01 T00740037  RH  077%=      5-min Rain = 0
KCR2 151026Z 18016KT 07/04 A301 RMK A01 T00740037  RH  077%=      5-min Rain = 0
KCR2 151027Z 18016KT 07/04 A301 RMK A01 T00740037  RH  077%=      5-min Rain = 0
KCR2 151028Z 17018KT 07/04 A301 RMK A01 T00740037  RH  077%=      5-min Rain = 0
KCR2 151029Z 17016KT 07/04 A301 RMK A01 T00740037  RH  077%=      5-min Rain = 0
KCR2 151030Z 18016KT 07/04 A301 RMK A01 T00740037  RH  077%=      5-min Rain = 0
KCR2 151031Z 18016KT 07/04 A301 RMK A01 T00740037  RH  077%=      5-min Rain = 0
KCR2 151032Z 17013KT 07/04 A301 RMK A01 T00740037  RH  077%=      5-min Rain = 0
KCR2 151033Z 17015G23KT 07/04 A301 RMK A01 T00730037  RH  078%=      5-min Rain = 0
KCR2 151034Z 18015KT 07/04 A301 RMK A01 T00730037  RH  078%=      5-min Rain = 0
KCR2 151035Z 18014KT 07/04 A301 RMK A01 T00740037  RH  077%=      5-min Rain = 0
KCR2 151036Z 17015KT 07/04 A301 RMK A01 T00740037  RH  077%=      5-min Rain = 0
KCR2 151037Z 18017KT 07/04 A301 RMK A01 T00730037  RH  078%=      5-min Rain = 0
KCR2 151038Z 17016KT 07/04 A301 RMK A01 T00730037  RH  078%=      5-min Rain = 0
KCR2 151039Z 17015KT 07/04 A301 RMK A01 T00740037  RH  077%=      5-min Rain = 0
KCR2 151040Z 17014KT 07/04 A301 RMK A01 T00740037  RH  077%=      5-min Rain = 0
KCR2 151041Z 17013KT 07/04 A301 RMK A01 T00740037  RH  077%=      5-min Rain = 0
KCR2 151042Z 17011KT 07/04 A301 RMK A01 T00730036  RH  077%=      5-min Rain = 0
KCR2 151043Z 17013KT 07/04 A301 RMK A01 T00720036  RH  078%=      5-min Rain = 0
KCR2 151044Z 18013KT 07/04 A301 RMK A01 T00720036  RH  078%=      5-min Rain = 0
KCR2 151045Z 17012KT 07/04 A301 RMK A01 T00720036  RH  078%=      5-min Rain = 0
KCR2 151046Z 17012KT 07/04 A301 RMK A01 T00710036  RH  078%=      5-min Rain = 0
KCR2 151047Z 17012KT 07/04 A301 RMK A01 T00710036  RH  079%=      5-min Rain = 0
KCR2 151048Z 17013KT 07/04 A301 RMK A01 T00710036  RH  079%=      5-min Rain = 0
KCR2 151049Z 18013KT 07/04 A301 RMK A01 T00710036  RH  078%=      5-min Rain = 0
KCR2 151050Z 18014KT 07/04 A301 RMK A01 T00720036  RH  078%=      5-min Rain = 0
KCR2 151051Z 18013KT 07/04 A301 RMK A01 T00710036  RH  078%=      5-min Rain = 0
KCR2 151052Z 17016KT 07/04 A301 RMK A01 T00700036  RH  079%=      5-min Rain = 0
KCR2 151053Z 18014G19KT 07/04 A301 RMK A01 T00710036  RH  079%=      5-min Rain = 0
KCR2 151054Z 18013KT 07/04 A301 RMK A01 T00710036  RH  078%=      5-min Rain = 0
KCR2 151055Z 17014KT 07/04 A301 RMK A01 T00710036  RH  078%=      5-min Rain = 0
KCR2 151056Z 18015KT 07/04 A301 RMK A01 T00710036  RH  078%=      5-min Rain = 0
KCR2 151057Z 18014KT 07/04 A301 RMK A01 T00710036  RH  079%=      5-min Rain = 0
KCR2 151058Z 17012KT 07/04 A301 RMK A01 T00700036  RH  078%=      5-min Rain = 0
KCR2 151059Z 18014KT 07/04 A301 RMK A01 T00700036  RH  079%=      5-min Rain = 0
KCR2 151100Z 18014KT 07/04 A301 RMK A01 T00700036  RH  079%=      5-min Rain = 0
KCR2 151101Z 18014KT 07/04 A301 RMK A01 T00700036  RH  079%=      5-min Rain = 0
KCR2 151102Z 18016KT 07/04 A301 RMK A01 T00700036  RH  079%=      5-min Rain = 0
KCR2 151103Z 18014KT 07/04 A301 RMK A01 T00710036  RH  079%=      5-min Rain = 0
KCR2 151104Z 18014KT 07/04 A301 RMK A01 T00710036  RH  078%=      5-min Rain = 0
KCR2 151105Z 18015KT 07/04 A301 RMK A01 T00700036  RH  079%=      5-min Rain = 0
KCR2 151106Z 18017KT 07/04 A3009 RMK A01 T00700036  RH  079%=      5-min Rain = 0
KCR2 151107Z 18013KT 07/04 A301 RMK A01 T00710036  RH  079%=      5-min Rain = 0
KCR2 151108Z 17013KT 07/04 A301 RMK A01 T00710036  RH  078%=      5-min Rain = 0
KCR2 151109Z 18014G19KT 07/04 A301 RMK A01 T00700036  RH  079%=      5-min Rain = 0
KCR2 151110Z 18016KT 07/04 A3009 RMK A01 T00690036  RH  079%=      5-min Rain = 0
KCR2 151111Z 18015KT 07/04 A3009 RMK A01 T00690036  RH  079%=      5-min Rain = 0
KCR2 151112Z 18017KT 07/04 A3009 RMK A01 T00690036  RH  079%=      5-min Rain = 0
KCR2 151113Z 18016KT 07/04 A3009 RMK A01 T00700036  RH  079%=      5-min Rain = 0
KCR2 151114Z 18015KT 07/04 A3009 RMK A01 T00700036  RH  079%=      5-min Rain = 0
KCR2 151115Z 18016KT 07/04 A3009 RMK A01 T00700037  RH  079%=      5-min Rain = 0
KCR2 151116Z 18017KT 07/04 A3009 RMK A01 T00690036  RH  079%=      5-min Rain = 0
KCR2 151117Z 18016KT 07/04 A3009 RMK A01 T00690037  RH  080%=      5-min Rain = 0
KCR2 151118Z 18015KT 07/04 A3009 RMK A01 T00690037  RH  080%=      5-min Rain = 0
KCR2 151119Z 18017KT 07/04 A3009 RMK A01 T00690037  RH  080%=      5-min Rain = 0
KCR2 151120Z 18015KT 07/04 A3009 RMK A01 T00700037  RH  079%=      5-min Rain = 0
KCR2 151121Z 18016KT 07/04 A3009 RMK A01 T00700036  RH  079%=      5-min Rain = 0
KCR2 151122Z 18017KT 07/04 A3009 RMK A01 T00700036  RH  079%=      5-min Rain = 0
KCR2 151123Z 17017KT 07/04 A3009 RMK A01 T00700037  RH  079%=      5-min Rain = 0
KCR2 151124Z 18017KT 07/04 A301 RMK A01 T00710037  RH  079%=      5-min Rain = 0
KCR2 151125Z 17016KT 07/04 A301 RMK A01 T00710037  RH  079%=      5-min Rain = 0
KCR2 151126Z 17017KT 07/04 A3009 RMK A01 T00710037  RH  079%=      5-min Rain = 0
KCR2 151127Z 18016KT 07/04 A301 RMK A01 T00710037  RH  079%=      5-min Rain = 0
KCR2 151128Z 18015KT 07/04 A301 RMK A01 T00720037  RH  078%=      5-min Rain = 0
KCR2 151129Z 17014KT 07/04 A301 RMK A01 T00710037  RH  079%=      5-min Rain = 0
KCR2 151130Z 18017KT 07/04 A301 RMK A01 T00710037  RH  079%=      5-min Rain = 0
KCR2 151131Z 17013G18KT 07/04 A301 RMK A01 T00710037  RH  079%=      5-min Rain = 0
KCR2 151132Z 18014KT 07/04 A301 RMK A01 T00710037  RH  079%=      5-min Rain = 0
KCR2 151133Z 17015KT 07/04 A301 RMK A01 T00700037  RH  079%=      5-min Rain = 0
KCR2 151134Z 18015KT 07/04 A3009 RMK A01 T00700036  RH  079%=      5-min Rain = 0
KCR2 151135Z 18013KT 07/04 A301 RMK A01 T00700037  RH  079%=      5-min Rain = 0
KCR2 151136Z 18014KT 07/04 A301 RMK A01 T00700037  RH  079%=      5-min Rain = 0
KCR2 151137Z 18014KT 07/04 A301 RMK A01 T00690037  RH  080%=      5-min Rain = 0
KCR2 151138Z 18018KT 07/04 A3009 RMK A01 T00690037  RH  080%=      5-min Rain = 0
KCR2 151139Z 18017KT 07/04 A301 RMK A01 T00700037  RH  079%=      5-min Rain = 0
KCR2 151140Z 18017KT 07/04 A301 RMK A01 T00700036  RH  079%=      5-min Rain = 0
KCR2 151141Z 18016KT 07/04 A301 RMK A01 T00700037  RH  079%=      5-min Rain = 0
KCR2 151142Z 18015KT 07/04 A301 RMK A01 T00700037  RH  079%=      5-min Rain = 0
KCR2 151143Z 18014KT 07/04 A301 RMK A01 T00700037  RH  079%=      5-min Rain = 0
KCR2 151144Z 18016KT 07/04 A301 RMK A01 T00690036  RH  080%=      5-min Rain = 0
KCR2 151145Z 18016KT 07/04 A301 RMK A01 T00700037  RH  080%=      5-min Rain = 0
KCR2 151146Z 18015KT 07/04 A301 RMK A01 T00700037  RH  080%=      5-min Rain = 0
KCR2 151147Z 18014KT 07/04 A301 RMK A01 T00700037  RH  080%=      5-min Rain = 0
KCR2 151148Z 18015KT 07/04 A301 RMK A01 T00690037  RH  080%=      5-min Rain = 0
KCR2 151149Z 18014KT 07/04 A301 RMK A01 T00690037  RH  080%=      5-min Rain = 0
KCR2 151150Z 18016G21KT 07/04 A301 RMK A01 T00690037  RH  080%=      5-min Rain = 0
KCR2 151151Z 18017KT 07/04 A301 RMK A01 T00690037  RH  080%=      5-min Rain = 0
KCR2 151152Z 18013KT 07/04 A301 RMK A01 T00700037  RH  080%=      5-min Rain = 0
KCR2 151153Z 18014KT 07/04 A301 RMK A01 T00700037  RH  080%=      5-min Rain = 0
KCR2 151154Z 18017KT 07/04 A301 RMK A01 T00700037  RH  080%=      5-min Rain = 0
KCR2 151155Z 17017KT 07/04 A301 RMK A01 T00700037  RH  080%=      5-min Rain = 0
KCR2 151156Z 18017KT 07/04 A301 RMK A01 T00700037  RH  080%=      5-min Rain = 0
KCR2 151157Z 18016KT 07/04 A301 RMK A01 T00700037  RH  079%=      5-min Rain = 0
KCR2 151158Z 18015KT 07/04 A301 RMK A01 T00700037  RH  080%=      5-min Rain = 0
KCR2 151159Z 18012KT 07/04 A301 RMK A01 T00700037  RH  079%=      5-min Rain = 0
KCR2 151200Z 18014KT 07/04 A301 RMK A01 T00700037  RH  080%=      5-min Rain = 0
KCR2 151201Z 18011KT 07/04 A301 RMK A01 T00700037  RH  080%=      5-min Rain = 0
KCR2 151202Z 18016KT 07/04 A301 RMK A01 T00700037  RH  080%=      5-min Rain = 0
KCR2 151203Z 18012KT 07/04 A301 RMK A01 T00700037  RH  080%=      5-min Rain = 0
KCR2 151204Z 18012KT 07/04 A301 RMK A01 T00700037  RH  080%=      5-min Rain = 0
KCR2 151205Z 18013KT 07/04 A301 RMK A01 T00690037  RH  080%=      5-min Rain = 0
KCR2 151206Z 18012KT 07/04 A301 RMK A01 T00690037  RH  080%=      5-min Rain = 0
KCR2 151207Z 18013KT 07/04 A301 RMK A01 T00690037  RH  080%=      5-min Rain = 0
KCR2 151208Z 18014KT 07/04 A3011 RMK A01 T00690038  RH  080%=      5-min Rain = 0
KCR2 151209Z 18013KT 07/04 A3011 RMK A01 T00700038  RH  080%=      5-min Rain = 0
KCR2 151210Z 19013KT 07/04 A3011 RMK A01 T00700038  RH  080%=      5-min Rain = 0
KCR2 151211Z 18011KT 07/04 A3011 RMK A01 T00700038  RH  080%=      5-min Rain = 0
KCR2 151212Z 18013KT 07/04 A3011 RMK A01 T00700038  RH  080%=      5-min Rain = 0
KCR2 151213Z 18012KT 07/04 A3011 RMK A01 T00700038  RH  080%=      5-min Rain = 0
KCR2 151214Z 18015KT 07/04 A3011 RMK A01 T00700038  RH  080%=      5-min Rain = 0
KCR2 151215Z 18012KT 07/04 A3011 RMK A01 T00700038  RH  080%=      5-min Rain = 0
KCR2 151216Z 18017KT 07/04 A3011 RMK A01 T00700038  RH  080%=      5-min Rain = 0
KCR2 151217Z 19014KT 07/04 A3011 RMK A01 T00700038  RH  080%=      5-min Rain = 0
KCR2 151218Z 19012KT 07/04 A3011 RMK A01 T00710038  RH  080%=      5-min Rain = 0
KCR2 151219Z 18013KT 07/04 A3011 RMK A01 T00700038  RH  080%=      5-min Rain = 0
KCR2 151220Z 18013KT 07/04 A3011 RMK A01 T00710038  RH  080%=      5-min Rain = 0
KCR2 151221Z 19014G19KT 07/04 A3011 RMK A01 T00710038  RH  079%=      5-min Rain = 0
KCR2 151222Z 18016KT 07/04 A3011 RMK A01 T00710038  RH  080%=      5-min Rain = 0
KCR2 151223Z 19017KT 07/04 A3011 RMK A01 T00710038  RH  080%=      5-min Rain = 0
KCR2 151224Z 19015KT 07/04 A3011 RMK A01 T00720038  RH  079%=      5-min Rain = 0
KCR2 151225Z 19014KT 07/04 A3011 RMK A01 T00720038  RH  079%=      5-min Rain = 0
KCR2 151226Z 18014KT 07/04 A3011 RMK A01 T00710038  RH  080%=      5-min Rain = 0
KCR2 151227Z 19012KT 07/04 A3011 RMK A01 T00710038  RH  080%=      5-min Rain = 0
KCR2 151228Z 19013KT 07/04 A3012 RMK A01 T00700037  RH  080%=      5-min Rain = 0
KCR2 151229Z 19011KT 07/04 A3012 RMK A01 T00700038  RH  080%=      5-min Rain = 0
KCR2 151230Z 19013KT 07/04 A3012 RMK A01 T00700038  RH  080%=      5-min Rain = 0
KCR2 151231Z 19012KT 07/04 A3012 RMK A01 T00700038  RH  080%=      5-min Rain = 0
KCR2 151232Z 19012KT 07/04 A3012 RMK A01 T00700038  RH  080%=      5-min Rain = 0
KCR2 151233Z 19011KT 07/04 A3012 RMK A01 T00700038  RH  080%=      5-min Rain = 0
KCR2 151234Z 18010KT 07/04 A3011 RMK A01 T00700038  RH  080%=      5-min Rain = 0
KCR2 151235Z 18012G19KT 07/04 A3011 RMK A01 T00690037  RH  080%=      5-min Rain = 0
KCR2 151236Z 18014KT 07/04 A3011 RMK A01 T00690038  RH  081%=      5-min Rain = 0
KCR2 151237Z 18011KT 07/04 A3011 RMK A01 T00700038  RH  080%=      5-min Rain = 0
KCR2 151238Z 18014KT 07/04 A3011 RMK A01 T00700038  RH  080%=      5-min Rain = 0
KCR2 151239Z 18012KT 07/04 A3011 RMK A01 T00700038  RH  080%=      5-min Rain = 0
KCR2 151240Z 18011KT 07/04 A3011 RMK A01 T00690038  RH  080%=      5-min Rain = 0
KCR2 151241Z 19009KT 07/04 A3011 RMK A01 T00680037  RH  081%=      5-min Rain = 0
KCR2 151242Z 18011KT 07/04 A3011 RMK A01 T00680038  RH  081%=      5-min Rain = 0
KCR2 151243Z 18013KT 07/04 A3011 RMK A01 T00670038  RH  081%=      5-min Rain = 0
KCR2 151244Z 18009KT 07/04 A3011 RMK A01 T00680038  RH  081%=      5-min Rain = 0
KCR2 151245Z 19008KT 07/04 A3011 RMK A01 T00680038  RH  081%=      5-min Rain = 0
KCR2 151246Z 18009KT 07/04 A3011 RMK A01 T00670037  RH  081%=      5-min Rain = 0
KCR2 151247Z 18013KT 07/04 A3011 RMK A01 T00670037  RH  081%=      5-min Rain = 0
KCR2 151248Z 19010KT 07/04 A3012 RMK A01 T00680038  RH  082%=      5-min Rain = 0
KCR2 151249Z 18009KT 07/04 A3012 RMK A01 T00680038  RH  081%=      5-min Rain = 0
KCR2 151250Z 18009KT 07/04 A3012 RMK A01 T00680037  RH  081%=      5-min Rain = 0
KCR2 151251Z 18010KT 07/04 A3012 RMK A01 T00670037  RH  081%=      5-min Rain = 0
KCR2 151252Z 18010KT 07/04 A3012 RMK A01 T00670038  RH  082%=      5-min Rain = 0
KCR2 151253Z 18010KT 07/04 A3012 RMK A01 T00670038  RH  081%=      5-min Rain = 0
KCR2 151254Z 18013KT 07/04 A3011 RMK A01 T00680038  RH  081%=      5-min Rain = 0
KCR2 151255Z 18010KT 07/04 A3012 RMK A01 T00680038  RH  081%=      5-min Rain = 0
KCR2 151256Z 17010KT 07/04 A3011 RMK A01 T00680038  RH  081%=      5-min Rain = 0
KCR2 151257Z 17012KT 07/04 A3011 RMK A01 T00670038  RH  082%=      5-min Rain = 0
KCR2 151258Z 18012KT 07/04 A3011 RMK A01 T00670038  RH  082%=      5-min Rain = 0
KCR2 151259Z 18011KT 07/04 A3011 RMK A01 T00670038  RH  082%=      5-min Rain = 0
KCR2 151300Z 18013KT 07/04 A3011 RMK A01 T00670038  RH  082%=      5-min Rain = 0
KCR2 151301Z 17015KT 07/04 A3011 RMK A01 T00670038  RH  082%=      5-min Rain = 0
KCR2 151302Z 18012KT 07/04 A3011 RMK A01 T00670039  RH  082%=      5-min Rain = 0
KCR2 151303Z 18010KT 07/04 A3011 RMK A01 T00670038  RH  082%=      5-min Rain = 0
KCR2 151304Z 18013KT 07/04 A3011 RMK A01 T00680038  RH  081%=      5-min Rain = 0
KCR2 151305Z 18013KT 07/04 A3011 RMK A01 T00670038  RH  082%=      5-min Rain = 0
KCR2 151306Z 18011KT 07/04 A3011 RMK A01 T00680038  RH  082%=      5-min Rain = 0
KCR2 151307Z 18011KT 07/04 A3011 RMK A01 T00680038  RH  081%=      5-min Rain = 0
KCR2 151308Z 18012KT 07/04 A3011 RMK A01 T00670038  RH  082%=      5-min Rain = 0
KCR2 151309Z 18013KT 07/04 A3011 RMK A01 T00670038  RH  082%=      5-min Rain = 0
KCR2 151310Z 18010KT 07/04 A3011 RMK A01 T00670038  RH  082%=      5-min Rain = 0
KCR2 151311Z 18010KT 07/04 A3011 RMK A01 T00670038  RH  082%=      5-min Rain = 0
KCR2 151312Z 18013KT 07/04 A3011 RMK A01 T00660038  RH  082%=      5-min Rain = 0
KCR2 151313Z 18013KT 07/04 A3011 RMK A01 T00660038  RH  083%=      5-min Rain = 0
KCR2 151314Z 18012KT 07/04 A3011 RMK A01 T00660038  RH  082%=      5-min Rain = 0
KCR2 151315Z 17011KT 07/04 A3011 RMK A01 T00670038  RH  082%=      5-min Rain = 0
KCR2 151316Z 18010KT 07/04 A3011 RMK A01 T00670038  RH  082%=      5-min Rain = 0
KCR2 151317Z 17011KT 07/04 A3011 RMK A01 T00670038  RH  082%=      5-min Rain = 0
KCR2 151318Z 17012KT 07/04 A3011 RMK A01 T00660038  RH  082%=      5-min Rain = 0
KCR2 151319Z 17011KT 07/04 A3011 RMK A01 T00660038  RH  083%=      5-min Rain = 0
KCR2 151320Z 17010KT 07/04 A3011 RMK A01 T00660038  RH  082%=      5-min Rain = 0
KCR2 151321Z 17011KT 07/04 A3011 RMK A01 T00660038  RH  082%=      5-min Rain = 0
KCR2 151322Z 18011KT 07/04 A3011 RMK A01 T00660038  RH  083%=      5-min Rain = 0
KCR2 151323Z 18011KT 07/04 A3011 RMK A01 T00660038  RH  082%=      5-min Rain = 0
KCR2 151324Z 18011KT 07/04 A3012 RMK A01 T00660038  RH  083%=      5-min Rain = 0
KCR2 151325Z 18014KT 07/04 A3012 RMK A01 T00660038  RH  083%=      5-min Rain = 0
KCR2 151326Z 18011KT 07/04 A3012 RMK A01 T00660038  RH  082%=      5-min Rain = 0
KCR2 151327Z 18012KT 07/04 A3011 RMK A01 T00670038  RH  082%=      5-min Rain = 0
KCR2 151328Z 18011KT 07/04 A3011 RMK A01 T00670039  RH  082%=      5-min Rain = 0
KCR2 151329Z 18012KT 07/04 A3012 RMK A01 T00660038  RH  082%=      5-min Rain = 0
KCR2 151330Z 18011KT 07/04 A3012 RMK A01 T00660038  RH  082%=      5-min Rain = 0
KCR2 151331Z 18012KT 07/04 A3012 RMK A01 T00660038  RH  082%=      5-min Rain = 0
KCR2 151332Z 18011KT 07/04 A3012 RMK A01 T00660038  RH  083%=      5-min Rain = 0
KCR2 151333Z 18011KT 07/04 A3012 RMK A01 T00650038  RH  083%=      5-min Rain = 0
KCR2 151334Z 18012KT 07/04 A3012 RMK A01 T00650038  RH  083%=      5-min Rain = 0
KCR2 151335Z 18012KT 07/04 A3012 RMK A01 T00650038  RH  083%=      5-min Rain = 0
KCR2 151336Z 18012KT 07/04 A3012 RMK A01 T00660038  RH  083%=      5-min Rain = 0
KCR2 151337Z 18010KT 07/04 A3012 RMK A01 T00660038  RH  083%=      5-min Rain = 0
KCR2 151338Z 18011KT 07/04 A3012 RMK A01 T00660038  RH  083%=      5-min Rain = 0
KCR2 151339Z 18012KT 07/04 A3012 RMK A01 T00660038  RH  083%=      5-min Rain = 0
KCR2 151340Z 18010KT 07/04 A3012 RMK A01 T00660038  RH  082%=      5-min Rain = 0
KCR2 151341Z 18011KT 07/04 A3012 RMK A01 T00660038  RH  082%=      5-min Rain = 0
KCR2 151342Z 18009KT 07/04 A3012 RMK A01 T00660038  RH  082%=      5-min Rain = 0
KCR2 151343Z 19009KT 07/04 A3012 RMK A01 T00660038  RH  082%=      5-min Rain = 0
KCR2 151344Z 18009KT 07/04 A3012 RMK A01 T00650038  RH  083%=      5-min Rain = 0
KCR2 151345Z 19009KT 07/04 A3012 RMK A01 T00650038  RH  083%=      5-min Rain = 0
KCR2 151346Z 18009KT 07/04 A3013 RMK A01 T00660038  RH  083%=      5-min Rain = 0
KCR2 151347Z 19009KT 07/04 A3013 RMK A01 T00670038  RH  082%=      5-min Rain = 0
KCR2 151348Z 19009KT 07/04 A3013 RMK A01 T00670038  RH  082%=      5-min Rain = 0
KCR2 151349Z 18010KT 07/04 A3013 RMK A01 T00660038  RH  082%=      5-min Rain = 0
KCR2 151350Z 18008KT 07/04 A3013 RMK A01 T00660038  RH  082%=      5-min Rain = 0
KCR2 151351Z 18010KT 07/04 A3013 RMK A01 T00670038  RH  082%=      5-min Rain = 0
KCR2 151352Z 19009KT 07/04 A3013 RMK A01 T00670038  RH  082%=      5-min Rain = 0
KCR2 151353Z 18010KT 07/04 A3013 RMK A01 T00680038  RH  081%=      5-min Rain = 0
KCR2 151354Z 18009KT 07/04 A3013 RMK A01 T00690039  RH  081%=      5-min Rain = 0
KCR2 151355Z 18009KT 07/04 A3013 RMK A01 T00680038  RH  081%=      5-min Rain = 0
KCR2 151356Z 18009KT 07/04 A3013 RMK A01 T00680038  RH  081%=      5-min Rain = 0
KCR2 151357Z 19009KT 07/04 A3013 RMK A01 T00680038  RH  081%=      5-min Rain = 0
KCR2 151358Z 18010KT 07/04 A3013 RMK A01 T00670038  RH  081%=      5-min Rain = 0
KCR2 151359Z 18010KT 07/04 A3013 RMK A01 T00680038  RH  081%=      5-min Rain = 0
KCR2 151400Z 18010KT 07/04 A3013 RMK A01 T00680038  RH  081%=      5-min Rain = 0
KCR2 151401Z 18011KT 07/04 A3013 RMK A01 T00680039  RH  081%=      5-min Rain = 0
KCR2 151402Z 18011KT 07/04 A3013 RMK A01 T00680039  RH  082%=      5-min Rain = 0
KCR2 151403Z 18011KT 07/04 A3013 RMK A01 T00680038  RH  081%=      5-min Rain = 0
KCR2 151404Z 19012KT 07/04 A3013 RMK A01 T00680038  RH  081%=      5-min Rain = 0
KCR2 151405Z 18009KT 07/04 A3013 RMK A01 T00690039  RH  081%=      5-min Rain = 0
KCR2 151406Z 18009KT 07/04 A3013 RMK A01 T00680039  RH  081%=      5-min Rain = 0
KCR2 151407Z 18010KT 07/04 A3013 RMK A01 T00690039  RH  082%=      5-min Rain = 0
KCR2 151408Z 18010KT 07/04 A3013 RMK A01 T00680039  RH  082%=      5-min Rain = 0
KCR2 151409Z 18010KT 07/04 A3013 RMK A01 T00680039  RH  081%=      5-min Rain = 0
KCR2 151410Z 18011KT 07/04 A3013 RMK A01 T00690039  RH  081%=      5-min Rain = 0
KCR2 151411Z 18010KT 07/04 A3013 RMK A01 T00690039  RH  081%=      5-min Rain = 0
KCR2 151412Z 18010KT 07/04 A3013 RMK A01 T00700039  RH  081%=      5-min Rain = 0
KCR2 151413Z 18009KT 07/04 A3013 RMK A01 T00690039  RH  081%=      5-min Rain = 0
KCR2 151414Z 18010KT 07/04 A3013 RMK A01 T00690039  RH  081%=      5-min Rain = 0
KCR2 151415Z 18011KT 07/04 A3013 RMK A01 T00690040  RH  081%=      5-min Rain = 0
KCR2 151416Z 18011KT 07/04 A3013 RMK A01 T00690039  RH  081%=      5-min Rain = 0
KCR2 151417Z 18012KT 07/04 A3013 RMK A01 T00700039  RH  081%=      5-min Rain = 0
KCR2 151418Z 18012KT 07/04 A3013 RMK A01 T00700039  RH  081%=      5-min Rain = 0
KCR2 151419Z 18012KT 07/04 A3013 RMK A01 T00700039  RH  081%=      5-min Rain = 0
KCR2 151420Z 18010KT 07/04 A3013 RMK A01 T00710040  RH  081%=      5-min Rain = 0
KCR2 151421Z 18013KT 07/04 A3013 RMK A01 T00710040  RH  081%=      5-min Rain = 0
KCR2 151422Z 18010KT 07/04 A3013 RMK A01 T00710039  RH  080%=      5-min Rain = 0
KCR2 151423Z 18013KT 07/04 A3013 RMK A01 T00710040  RH  081%=      5-min Rain = 0
KCR2 151424Z 18012KT 07/04 A3013 RMK A01 T00710040  RH  081%=      5-min Rain = 0
KCR2 151425Z 17013KT 07/04 A3013 RMK A01 T00710040  RH  080%=      5-min Rain = 0
KCR2 151426Z 18013KT 07/04 A3013 RMK A01 T00720040  RH  080%=      5-min Rain = 0
KCR2 151427Z 18013KT 07/04 A3013 RMK A01 T00720040  RH  080%=      5-min Rain = 0
KCR2 151428Z 18013KT 07/04 A3013 RMK A01 T00720040  RH  080%=      5-min Rain = 0
KCR2 151429Z 17010KT 07/04 A3013 RMK A01 T00730041  RH  080%=      5-min Rain = 0
KCR2 151430Z 18009KT 07/04 A3013 RMK A01 T00730041  RH  080%=      5-min Rain = 0
KCR2 151431Z 18008KT 07/04 A3013 RMK A01 T00740042  RH  080%=      5-min Rain = 0
KCR2 151432Z 18008KT 07/04 A3013 RMK A01 T00740043  RH  080%=      5-min Rain = 0
KCR2 151433Z 17009KT 08/04 A3013 RMK A01 T00750042  RH  080%=      5-min Rain = 0
KCR2 151434Z 17012KT 08/04 A3013 RMK A01 T00750042  RH  079%=      5-min Rain = 0
KCR2 151435Z 18011KT 08/04 A3013 RMK A01 T00760042  RH  079%=      5-min Rain = 0
KCR2 151436Z 17012KT 08/04 A3013 RMK A01 T00750041  RH  079%=      5-min Rain = 0
KCR2 151437Z 18010KT 08/04 A3013 RMK A01 T00750041  RH  079%=      5-min Rain = 0
KCR2 151438Z 18010KT 08/04 A3013 RMK A01 T00750041  RH  079%=      5-min Rain = 0
KCR2 151439Z 18009KT 08/04 A3013 RMK A01 T00750041  RH  079%=      5-min Rain = 0
KCR2 151440Z 18010KT 08/04 A3013 RMK A01 T00750042  RH  079%=      5-min Rain = 0
KCR2 151441Z 18010KT 08/04 A3013 RMK A01 T00760041  RH  079%=      5-min Rain = 0
KCR2 151442Z 18010KT 08/04 A3013 RMK A01 T00760041  RH  078%=      5-min Rain = 0
KCR2 151443Z 18009KT 08/04 A3013 RMK A01 T00770041  RH  078%=      5-min Rain = 0
KCR2 151444Z 18008KT 08/04 A3013 RMK A01 T00770041  RH  078%=      5-min Rain = 0
KCR2 151445Z 18008KT 08/04 A3013 RMK A01 T00770041  RH  078%=      5-min Rain = 0
KCR2 151446Z 18007KT 08/04 A3013 RMK A01 T00770042  RH  078%=      5-min Rain = 0
KCR2 151447Z 18007KT 08/04 A3013 RMK A01 T00770042  RH  078%=      5-min Rain = 0
KCR2 151448Z 18007KT 08/04 A3013 RMK A01 T00780042  RH  078%=      5-min Rain = 0
KCR2 151449Z 18007KT 08/04 A3013 RMK A01 T00790043  RH  078%=      5-min Rain = 0
KCR2 151450Z 18008KT 08/04 A3013 RMK A01 T00790043  RH  078%=      5-min Rain = 0
KCR2 151451Z 18008KT 08/04 A3013 RMK A01 T00800041  RH  077%=      5-min Rain = 0
KCR2 151452Z 18009KT 08/04 A3013 RMK A01 T00800043  RH  077%=      5-min Rain = 0
KCR2 151453Z 18010KT 08/04 A3013 RMK A01 T00810042  RH  076%=      5-min Rain = 0
KCR2 151454Z 19009KT 08/04 A3013 RMK A01 T00820043  RH  077%=      5-min Rain = 0
KCR2 151455Z 19009KT 08/04 A3013 RMK A01 T00820042  RH  076%=      5-min Rain = 0
KCR2 151456Z 19011KT 08/04 A3013 RMK A01 T00820043  RH  076%=      5-min Rain = 0
KCR2 151457Z 19011KT 08/04 A3013 RMK A01 T00820042  RH  076%=      5-min Rain = 0
KCR2 151458Z 19010KT 08/04 A3013 RMK A01 T00820043  RH  076%=      5-min Rain = 0
KCR2 151459Z 18012KT 08/04 A3013 RMK A01 T00830043  RH  076%=      5-min Rain = 0
KCR2 151500Z 18009KT 08/04 A3013 RMK A01 T00830042  RH  076%=      5-min Rain = 0
KCR2 151501Z 18010KT 08/04 A3013 RMK A01 T00830044  RH  076%=      5-min Rain = 0
KCR2 151502Z 19010KT 08/04 A3013 RMK A01 T00840044  RH  076%=      5-min Rain = 0
KCR2 151503Z 19012KT 09/04 A3013 RMK A01 T00850043  RH  075%=      5-min Rain = 0
KCR2 151504Z 19011KT 08/04 A3013 RMK A01 T00840042  RH  075%=      5-min Rain = 0
KCR2 151505Z 18012KT 08/04 A3013 RMK A01 T00840042  RH  075%=      5-min Rain = 0
KCR2 151506Z 19011KT 09/04 A3013 RMK A01 T00850042  RH  075%=      5-min Rain = 0
KCR2 151507Z 18011KT 09/04 A3013 RMK A01 T00850043  RH  075%=      5-min Rain = 0
KCR2 151508Z 18011KT 09/04 A3013 RMK A01 T00850043  RH  075%=      5-min Rain = 0
KCR2 151509Z 19009KT 09/04 A3013 RMK A01 T00860043  RH  074%=      5-min Rain = 0
KCR2 151510Z 19011KT 09/04 A3014 RMK A01 T00860044  RH  075%=      5-min Rain = 0
KCR2 151511Z 19012KT 09/04 A3014 RMK A01 T00870044  RH  074%=      5-min Rain = 0
KCR2 151512Z 19012KT 09/04 A3013 RMK A01 T00870043  RH  074%=      5-min Rain = 0
KCR2 151513Z 19011KT 09/04 A3014 RMK A01 T00870042  RH  073%=      5-min Rain = 0
KCR2 151514Z 20010KT 09/04 A3014 RMK A01 T00880044  RH  074%=      5-min Rain = 0
KCR2 151515Z 20011KT 09/05 A3014 RMK A01 T00890045  RH  074%=      5-min Rain = 0
KCR2 151516Z 20010KT 09/04 A3014 RMK A01 T00890044  RH  073%=      5-min Rain = 0
KCR2 151517Z 19010KT 09/04 A3013 RMK A01 T00900044  RH  073%=      5-min Rain = 0
KCR2 151518Z 19009KT 09/05 A3013 RMK A01 T00910047  RH  074%=      5-min Rain = 0
KCR2 151519Z 19008KT 09/05 A3013 RMK A01 T00930047  RH  073%=      5-min Rain = 0
KCR2 151520Z 20010KT 09/05 A3014 RMK A01 T00940047  RH  073%=      5-min Rain = 0
KCR2 151521Z 20011KT 09/05 A3014 RMK A01 T00940045  RH  071%=      5-min Rain = 0
KCR2 151522Z 19012KT 09/05 A3014 RMK A01 T00940045  RH  071%=      5-min Rain = 0
KCR2 151523Z 19011KT 09/04 A3014 RMK A01 T00930044  RH  071%=      5-min Rain = 0
KCR2 151524Z 19010KT 09/05 A3014 RMK A01 T00930045  RH  072%=      5-min Rain = 0
KCR2 151525Z 20009KT 09/05 A3014 RMK A01 T00930046  RH  072%=      5-min Rain = 0
KCR2 151526Z 19009KT 10/05 A3013 RMK A01 T00950047  RH  072%=      5-min Rain = 0
KCR2 151527Z 21010KT 10/05 A3013 RMK A01 T00960048  RH  072%=      5-min Rain = 0
KCR2 151528Z 20008KT 10/05 A3013 RMK A01 T00960047  RH  071%=      5-min Rain = 0
KCR2 151529Z 20008KT 10/05 A3013 RMK A01 T00970048  RH  072%=      5-min Rain = 0
KCR2 151530Z 20008KT 10/05 A3013 RMK A01 T00980048  RH  071%=      5-min Rain = 0
KCR2 151531Z 19008KT 10/05 A3013 RMK A01 T00980050  RH  072%=      5-min Rain = 0
KCR2 151532Z 20009KT 10/05 A3013 RMK A01 T00990050  RH  071%=      5-min Rain = 0
KCR2 151533Z 21011KT 10/05 A3013 RMK A01 T01000048  RH  070%=      5-min Rain = 0
KCR2 151534Z 21012KT 10/05 A3013 RMK A01 T01000046  RH  069%=      5-min Rain = 0
KCR2 151535Z 20010KT 10/04 A3013 RMK A01 T00980044  RH  069%=      5-min Rain = 0
KCR2 151536Z 20010KT 10/05 A3013 RMK A01 T00970045  RH  070%=      5-min Rain = 0
KCR2 151537Z 21011KT 10/04 A3013 RMK A01 T00970044  RH  069%=      5-min Rain = 0
KCR2 151538Z 21009KT 10/05 A3013 RMK A01 T00980046  RH  070%=      5-min Rain = 0
KCR2 151539Z 21010KT 10/05 A3013 RMK A01 T00990048  RH  071%=      5-min Rain = 0
KCR2 151540Z 21012KT 10/05 A3014 RMK A01 T01000047  RH  070%=      5-min Rain = 0
KCR2 151541Z 21011KT 10/05 A3013 RMK A01 T00990046  RH  069%=      5-min Rain = 0
KCR2 151542Z 21010KT 10/04 A3014 RMK A01 T00990044  RH  069%=      5-min Rain = 0
KCR2 151543Z 20011KT 10/05 A3014 RMK A01 T01000047  RH  069%=      5-min Rain = 0
KCR2 151544Z 20010KT 10/05 A3014 RMK A01 T01010047  RH  069%=      5-min Rain = 0
KCR2 151545Z 20010KT 10/05 A3014 RMK A01 T01000047  RH  070%=      5-min Rain = 0
KCR2 151546Z 21010KT 10/05 A3014 RMK A01 T01000047  RH  070%=      5-min Rain = 0
KCR2 151547Z 21009KT 10/05 A3014 RMK A01 T01010048  RH  070%=      5-min Rain = 0
KCR2 151548Z 21011KT 10/05 A3014 RMK A01 T01010047  RH  069%=      5-min Rain = 0
KCR2 151549Z 21011KT 10/05 A3014 RMK A01 T01010047  RH  069%=      5-min Rain = 0
KCR2 151550Z 21013KT 10/05 A3013 RMK A01 T01020046  RH  068%=      5-min Rain = 0
KCR2 151551Z 20011KT 10/05 A3013 RMK A01 T01010046  RH  069%=      5-min Rain = 0
KCR2 151552Z 20012KT 10/05 A3013 RMK A01 T01000047  RH  069%=      5-min Rain = 0
KCR2 151553Z 20011KT 10/05 A3013 RMK A01 T01000045  RH  068%=      5-min Rain = 0
KCR2 151554Z 20011KT 10/05 A3013 RMK A01 T01000047  RH  070%=      5-min Rain = 0
KCR2 151555Z 19011KT 10/05 A3013 RMK A01 T01010048  RH  070%=      5-min Rain = 0
KCR2 151556Z 19011KT 10/05 A3013 RMK A01 T01010046  RH  069%=      5-min Rain = 0
KCR2 151557Z 20010KT 10/05 A3013 RMK A01 T01000047  RH  069%=      5-min Rain = 0
KCR2 151558Z 21010KT 10/05 A3013 RMK A01 T01010049  RH  070%=      5-min Rain = 0
KCR2 151559Z 21011KT 10/05 A3013 RMK A01 T01020046  RH  068%=      5-min Rain = 0
KCR2 151600Z 20010KT 10/05 A3013 RMK A01 T01010046  RH  069%=      5-min Rain = 0
KCR2 151601Z 21011KT 10/05 A3013 RMK A01 T01010047  RH  069%=      5-min Rain = 0
KCR2 151602Z 21011KT 10/05 A3013 RMK A01 T01020046  RH  068%=      5-min Rain = 0
KCR2 151603Z 21011KT 10/05 A3013 RMK A01 T01020045  RH  068%=      5-min Rain = 0
KCR2 151604Z 21011KT 10/05 A3013 RMK A01 T01020045  RH  068%=      5-min Rain = 0
KCR2 151605Z 20010KT 10/05 A3013 RMK A01 T01010045  RH  069%=      5-min Rain = 0
KCR2 151606Z 20010KT 10/05 A3013 RMK A01 T01000045  RH  069%=      5-min Rain = 0
KCR2 151607Z 20010KT 10/05 A3013 RMK A01 T01000046  RH  069%=      5-min Rain = 0
KCR2 151608Z 20011KT 10/05 A3013 RMK A01 T01010046  RH  069%=      5-min Rain = 0
KCR2 151609Z 21010KT 10/05 A3013 RMK A01 T01010045  RH  068%=      5-min Rain = 0
KCR2 151610Z 21010KT 10/05 A3013 RMK A01 T01010046  RH  069%=      5-min Rain = 0
KCR2 151611Z 20011KT 10/05 A3013 RMK A01 T01020047  RH  069%=      5-min Rain = 0
KCR2 151612Z 20011KT 10/05 A3013 RMK A01 T01030048  RH  069%=      5-min Rain = 0
KCR2 151613Z 20010KT 10/05 A3013 RMK A01 T01030045  RH  068%=      5-min Rain = 0
KCR2 151614Z 19011KT 10/05 A3013 RMK A01 T01020046  RH  068%=      5-min Rain = 0
KCR2 151615Z 19011KT 10/05 A3013 RMK A01 T01020047  RH  069%=      5-min Rain = 0
KCR2 151616Z 19011KT 10/05 A3013 RMK A01 T01030048  RH  069%=      5-min Rain = 0
KCR2 151617Z 20009KT 10/05 A3013 RMK A01 T01030049  RH  069%=      5-min Rain = 0
KCR2 151618Z 21009KT 11/05 A3013 RMK A01 T01050051  RH  069%=      5-min Rain = 0
KCR2 151619Z 22011KT 11/05 A3013 RMK A01 T01070048  RH  067%=      5-min Rain = 0
KCR2 151620Z 22010KT 11/05 A3013 RMK A01 T01070047  RH  066%=      5-min Rain = 0
KCR2 151621Z 21009KT 11/05 A3013 RMK A01 T01070048  RH  067%=      5-min Rain = 0
KCR2 151622Z 20010KT 11/05 A3013 RMK A01 T01080049  RH  067%=      5-min Rain = 0
KCR2 151623Z 20011KT 11/05 A3013 RMK A01 T01080048  RH  066%=      5-min Rain = 0
KCR2 151624Z 20010KT 11/05 A3013 RMK A01 T01080049  RH  067%=      5-min Rain = 0
KCR2 151625Z 22010KT 11/05 A3013 RMK A01 T01100050  RH  066%=      5-min Rain = 0
KCR2 151626Z 22011KT 11/05 A3013 RMK A01 T01110048  RH  065%=      5-min Rain = 0
KCR2 151627Z 22010KT 11/05 A3013 RMK A01 T01120050  RH  065%=      5-min Rain = 0
KCR2 151628Z 22011KT 11/05 A3013 RMK A01 T01140049  RH  064%=      5-min Rain = 0
KCR2 151629Z 21011KT 11/05 A3013 RMK A01 T01140047  RH  064%=      5-min Rain = 0
KCR2 151630Z 21010KT 11/05 A3013 RMK A01 T01140046  RH  063%=      5-min Rain = 0
KCR2 151631Z 21010KT 11/05 A3013 RMK A01 T01140050  RH  064%=      5-min Rain = 0
KCR2 151632Z 22009KT 12/05 A3013 RMK A01 T01160049  RH  063%=      5-min Rain = 0
KCR2 151633Z 20010KT 12/05 A3013 RMK A01 T01160050  RH  064%=      5-min Rain = 0
KCR2 151634Z 21009KT 12/05 A3013 RMK A01 T01180050  RH  063%=      5-min Rain = 0
KCR2 151635Z 22010KT 12/05 A3013 RMK A01 T01180051  RH  063%=      5-min Rain = 0
KCR2 151636Z 23010KT 12/05 A3013 RMK A01 T01180049  RH  062%=      5-min Rain = 0
KCR2 151637Z 23008KT 12/05 A3013 RMK A01 T01170049  RH  063%=      5-min Rain = 0
KCR2 151638Z 22008KT 12/05 A3013 RMK A01 T01170049  RH  063%=      5-min Rain = 0
KCR2 151639Z 21010KT 12/05 A3013 RMK A01 T01200051  RH  063%=      5-min Rain = 0
KCR2 151640Z 21011KT 12/05 A3013 RMK A01 T01200048  RH  061%=      5-min Rain = 0
KCR2 151641Z 22011KT 12/05 A3013 RMK A01 T01200047  RH  061%=      5-min Rain = 0
KCR2 151642Z 21010KT 12/05 A3013 RMK A01 T01200048  RH  061%=      5-min Rain = 0
KCR2 151643Z 21010KT 12/05 A3013 RMK A01 T01210048  RH  061%=      5-min Rain = 0
KCR2 151644Z 20009KT 12/05 A3013 RMK A01 T01210049  RH  061%=      5-min Rain = 0
KCR2 151645Z 21009KT 12/05 A3013 RMK A01 T01220049  RH  061%=      5-min Rain = 0
KCR2 151646Z 22010KT 12/05 A3012 RMK A01 T01230050  RH  061%=      5-min Rain = 0
KCR2 151647Z 23011KT 12/05 A3012 RMK A01 T01240049  RH  060%=      5-min Rain = 0
KCR2 151648Z 22010KT 12/05 A3012 RMK A01 T01240050  RH  060%=      5-min Rain = 0
KCR2 151649Z 19010KT 13/05 A3012 RMK A01 T01270053  RH  061%=      5-min Rain = 0
KCR2 151650Z 20009KT 13/05 A3012 RMK A01 T01270051  RH  060%=      5-min Rain = 0
KCR2 151651Z 20008KT 13/05 A3012 RMK A01 T01270052  RH  060%=      5-min Rain = 0
KCR2 151652Z 20012KT 13/05 A3012 RMK A01 T01290053  RH  060%=      5-min Rain = 0
KCR2 151653Z 19011KT 13/05 A3012 RMK A01 T01290050  RH  059%=      5-min Rain = 0
KCR2 151654Z 19011KT 13/05 A3012 RMK A01 T01280050  RH  059%=      5-min Rain = 0
KCR2 151655Z 19011KT 13/05 A3012 RMK A01 T01280051  RH  060%=      5-min Rain = 0
KCR2 151656Z 19010KT 13/05 A3012 RMK A01 T01280051  RH  060%=      5-min Rain = 0
KCR2 151657Z 21008KT 13/05 A3012 RMK A01 T01280051  RH  059%=      5-min Rain = 0
KCR2 151658Z 21009KT 13/05 A3012 RMK A01 T01310052  RH  059%=      5-min Rain = 0
KCR2 151659Z 21009KT 13/05 A3012 RMK A01 T01320054  RH  059%=      5-min Rain = 0
KCR2 151700Z 20009KT 13/05 A3012 RMK A01 T01340053  RH  058%=      5-min Rain = 0
KCR2 151701Z 20010KT 13/05 A3012 RMK A01 T01330051  RH  058%=      5-min Rain = 0
KCR2 151702Z 20012KT 13/05 A3012 RMK A01 T01310052  RH  059%=      5-min Rain = 0
KCR2 151703Z 21010KT 13/05 A3012 RMK A01 T01300052  RH  059%=      5-min Rain = 0
KCR2 151704Z 20011KT 13/05 A3012 RMK A01 T01310054  RH  059%=      5-min Rain = 0
KCR2 151705Z 20010KT 13/05 A3012 RMK A01 T01320051  RH  058%=      5-min Rain = 0
KCR2 151706Z 20011KT 13/05 A3012 RMK A01 T01340053  RH  058%=      5-min Rain = 0
KCR2 151707Z 21013KT 14/05 A3012 RMK A01 T01360051  RH  056%=      5-min Rain = 0
KCR2 151708Z 21011KT 14/05 A3012 RMK A01 T01350049  RH  056%=      5-min Rain = 0
KCR2 151709Z 22009KT 14/05 A3012 RMK A01 T01350049  RH  056%=      5-min Rain = 0
KCR2 151710Z 20010KT 14/05 A3012 RMK A01 T01350049  RH  056%=      5-min Rain = 0
KCR2 151711Z 21011KT 14/05 A3012 RMK A01 T01360048  RH  056%=      5-min Rain = 0
KCR2 151712Z 23011KT 14/05 A3012 RMK A01 T01370045  RH  054%=      5-min Rain = 0
KCR2 151713Z 23010KT 14/05 A3012 RMK A01 T01370045  RH  054%=      5-min Rain = 0
KCR2 151714Z 21009KT 14/05 A3012 RMK A01 T01370048  RH  055%=      5-min Rain = 0
KCR2 151715Z 21008KT 14/05 A3012 RMK A01 T01380052  RH  056%=      5-min Rain = 0
KCR2 151716Z 23010KT 14/05 A3012 RMK A01 T01400050  RH  055%=      5-min Rain = 0
KCR2 151717Z 22010KT 14/04 A3012 RMK A01 T01400044  RH  053%=      5-min Rain = 0
KCR2 151718Z 22009KT 14/04 A3012 RMK A01 T01380044  RH  053%=      5-min Rain = 0
KCR2 151719Z 23008KT 14/05 A3012 RMK A01 T01370047  RH  054%=      5-min Rain = 0
KCR2 151720Z 22007KT 14/05 A3012 RMK A01 T01370046  RH  054%=      5-min Rain = 0
KCR2 151721Z 22009KT 14/05 A3012 RMK A01 T01380048  RH  055%=      5-min Rain = 0
KCR2 151722Z 21011KT 14/05 A3012 RMK A01 T01400047  RH  053%=      5-min Rain = 0
KCR2 151723Z 21011KT 14/05 A3012 RMK A01 T01410046  RH  053%=      5-min Rain = 0
KCR2 151724Z 22010KT 14/05 A3012 RMK A01 T01400045  RH  053%=      5-min Rain = 0
KCR2 151725Z 22009KT 14/05 A3012 RMK A01 T01400045  RH  053%=      5-min Rain = 0
KCR2 151726Z 22008KT 14/05 A3012 RMK A01 T01400047  RH  053%=      5-min Rain = 0
KCR2 151727Z 21009KT 14/05 A3012 RMK A01 T01410045  RH  053%=      5-min Rain = 0
KCR2 151728Z 22007KT 14/04 A3012 RMK A01 T01410044  RH  052%=      5-min Rain = 0
KCR2 151729Z 22007KT 14/05 A3012 RMK A01 T01410046  RH  053%=      5-min Rain = 0
KCR2 151730Z 21008KT 14/05 A3012 RMK A01 T01420047  RH  053%=      5-min Rain = 0
KCR2 151731Z 21008KT 14/05 A3012 RMK A01 T01440052  RH  054%=      5-min Rain = 0
KCR2 151732Z 22008KT 15/05 A3012 RMK A01 T01450047  RH  052%=      5-min Rain = 0
KCR2 151733Z 22005KT 14/05 A3012 RMK A01 T01440045  RH  052%=      5-min Rain = 0
KCR2 151734Z 23008KT 14/05 A3012 RMK A01 T01440049  RH  053%=      5-min Rain = 0
KCR2 151735Z 21008KT 15/05 A3012 RMK A01 T01450048  RH  052%=      5-min Rain = 0
KCR2 151736Z 21007KT 15/04 A3012 RMK A01 T01450044  RH  051%=      5-min Rain = 0
KCR2 151737Z 23007KT 15/05 A3012 RMK A01 T01450045  RH  051%=      5-min Rain = 0
KCR2 151738Z 23007KT 15/05 A3012 RMK A01 T01460049  RH  052%=      5-min Rain = 0
KCR2 151739Z 24008KT 15/05 A3012 RMK A01 T01470050  RH  052%=      5-min Rain = 0
KCR2 151740Z 23007KT 15/05 A3012 RMK A01 T01470050  RH  052%=      5-min Rain = 0
KCR2 151741Z 22007KT 15/05 A3012 RMK A01 T01480051  RH  052%=      5-min Rain = 0
KCR2 151742Z 21008KT 15/05 A3012 RMK A01 T01510053  RH  052%=      5-min Rain = 0
KCR2 151743Z 21007KT 15/05 A3012 RMK A01 T01510046  RH  050%=      5-min Rain = 0
KCR2 151744Z 20007KT 15/05 A3012 RMK A01 T01490048  RH  051%=      5-min Rain = 0
KCR2 151745Z 21006KT 15/05 A3012 RMK A01 T01490046  RH  050%=      5-min Rain = 0
KCR2 151746Z 25009KT 15/05 A3012 RMK A01 T01490049  RH  051%=      5-min Rain = 0
KCR2 151747Z 26007KT 15/05 A3012 RMK A01 T01490046  RH  050%=      5-min Rain = 0
KCR2 151748Z 25006KT 15/04 A3012 RMK A01 T01470043  RH  050%=      5-min Rain = 0
KCR2 151749Z 23007KT 15/05 A3012 RMK A01 T01470046  RH  051%=      5-min Rain = 0
KCR2 151750Z 22007KT 15/05 A3012 RMK A01 T01480048  RH  051%=      5-min Rain = 0
KCR2 151751Z 23008KT 15/05 A3012 RMK A01 T01500049  RH  051%=      5-min Rain = 0
KCR2 151752Z 21004KT 15/05 A3012 RMK A01 T01520045  RH  049%=      5-min Rain = 0
KCR2 151753Z 24006KT 15/05 A3012 RMK A01 T01530049  RH  050%=      5-min Rain = 0
KCR2 151754Z 25007KT 15/05 A3012 RMK A01 T01540047  RH  049%=      5-min Rain = 0
KCR2 151755Z 24006KT 15/05 A3012 RMK A01 T01530046  RH  049%=      5-min Rain = 0
KCR2 151756Z 25004KT 15/05 A3012 RMK A01 T01530047  RH  049%=      5-min Rain = 0
KCR2 151757Z 23008KT 15/05 A3012 RMK A01 T01530047  RH  049%=      5-min Rain = 0
KCR2 151758Z 22008KT 16/05 A3012 RMK A01 T01550051  RH  050%=      5-min Rain = 0
KCR2 151759Z 21007KT 16/05 A3012 RMK A01 T01570053  RH  050%=      5-min Rain = 0
KCR2 151800Z 20006KT 16/05 A3012 RMK A01 T01580053  RH  050%=      5-min Rain = 0
KCR2 151801Z 20004KT 16/05 A3012 RMK A01 T01580049  RH  048%=      5-min Rain = 0
KCR2 151802Z 23006KT 16/05 A3012 RMK A01 T01570050  RH  049%=      5-min Rain = 0
KCR2 151803Z 21008KT 16/05 A3011 RMK A01 T01580050  RH  049%=      5-min Rain = 0
KCR2 151804Z 20005KT 16/05 A3011 RMK A01 T01590046  RH  047%=      5-min Rain = 0
KCR2 151805Z 19005KT 16/05 A3011 RMK A01 T01580048  RH  048%=      5-min Rain = 0
KCR2 151806Z 22004KT 16/05 A3011 RMK A01 T01580049  RH  048%=      5-min Rain = 0
KCR2 151807Z 24004KT 16/05 A3011 RMK A01 T01600050  RH  048%=      5-min Rain = 0
KCR2 151808Z 22006KT 16/05 A3011 RMK A01 T01610054  RH  049%=      5-min Rain = 0
KCR2 151809Z 21007KT 16/05 A3011 RMK A01 T01630051  RH  048%=      5-min Rain = 0
KCR2 151810Z 22005KT 16/05 A3011 RMK A01 T01630047  RH  046%=      5-min Rain = 0
KCR2 151811Z 24006KT 16/05 A3011 RMK A01 T01620047  RH  047%=      5-min Rain = 0
KCR2 151812Z 24005KT 16/05 A3011 RMK A01 T01600045  RH  047%=      5-min Rain = 0
KCR2 151813Z 24004KT 16/05 A3011 RMK A01 T01590047  RH  047%=      5-min Rain = 0
KCR2 151814Z 21004KT 16/05 A3011 RMK A01 T01590050  RH  048%=      5-min Rain = 0
KCR2 151815Z 19006KT 16/05 A3011 RMK A01 T01600050  RH  048%=      5-min Rain = 0
KCR2 151816Z 20007KT 16/05 A3011 RMK A01 T01610050  RH  048%=      5-min Rain = 0
KCR2 151817Z 20008KT 16/05 A301 RMK A01 T01630050  RH  047%=      5-min Rain = 0
KCR2 151818Z 22007KT 16/05 A3011 RMK A01 T01640049  RH  047%=      5-min Rain = 0
KCR2 151819Z 23006KT 17/05 A3011 RMK A01 T01650049  RH  046%=      5-min Rain = 0
KCR2 151820Z 25005KT 17/05 A3011 RMK A01 T01650050  RH  047%=      5-min Rain = 0
KCR2 151821Z 25005KT 17/05 A3011 RMK A01 T01650049  RH  046%=      5-min Rain = 0
KCR2 151822Z 25005KT 17/05 A301 RMK A01 T01650046  RH  045%=      5-min Rain = 0
KCR2 151823Z 23004KT 17/05 A301 RMK A01 T01650045  RH  045%=      5-min Rain = 0
KCR2 151824Z 22004KT 17/05 A301 RMK A01 T01650047  RH  046%=      5-min Rain = 0
KCR2 151825Z 23005KT 17/05 A301 RMK A01 T01660049  RH  046%=      5-min Rain = 0
KCR2 151826Z 22006KT 17/05 A301 RMK A01 T01670054  RH  047%=      5-min Rain = 0
KCR2 151827Z 22005KT 17/05 A301 RMK A01 T01690050  RH  045%=      5-min Rain = 0
KCR2 151828Z 24007KT 17/05 A301 RMK A01 T01690047  RH  044%=      5-min Rain = 0
KCR2 151829Z 26006KT 17/04 A301 RMK A01 T01700044  RH  043%=      5-min Rain = 0
KCR2 151830Z 26004KT 17/04 A301 RMK A01 T01690043  RH  043%=      5-min Rain = 0
KCR2 151831Z 23003KT 17/05 A301 RMK A01 T01690046  RH  044%=      5-min Rain = 0
KCR2 151832Z 21007KT 17/05 A301 RMK A01 T01700050  RH  045%=      5-min Rain = 0
KCR2 151833Z 23005KT 17/05 A301 RMK A01 T01710050  RH  045%=      5-min Rain = 0
KCR2 151834Z 21007KT 17/05 A301 RMK A01 T01720053  RH  045%=      5-min Rain = 0
KCR2 151835Z 21006KT 17/05 A301 RMK A01 T01720046  RH  043%=      5-min Rain = 0
KCR2 151836Z 21007KT 17/05 A301 RMK A01 T01710047  RH  044%=      5-min Rain = 0
KCR2 151837Z 21008KT 17/05 A301 RMK A01 T01710048  RH  044%=      5-min Rain = 0
KCR2 151838Z 21008KT 17/04 A301 RMK A01 T01710044  RH  043%=      5-min Rain = 0
KCR2 151839Z 22008KT 17/05 A301 RMK A01 T01710053  RH  045%=      5-min Rain = 0
KCR2 151840Z 21008KT 17/05 A301 RMK A01 T01730049  RH  044%=      5-min Rain = 0
KCR2 151841Z 22006KT 17/05 A301 RMK A01 T01720045  RH  043%=      5-min Rain = 0
KCR2 151842Z 23004KT 17/05 A301 RMK A01 T01710045  RH  043%=      5-min Rain = 0
KCR2 151843Z 23007KT 17/05 A301 RMK A01 T01720051  RH  045%=      5-min Rain = 0
KCR2 151844Z 22009KT 17/05 A301 RMK A01 T01730049  RH  044%=      5-min Rain = 0
KCR2 151845Z 22008KT 17/05 A301 RMK A01 T01740049  RH  043%=      5-min Rain = 0
KCR2 151846Z 23005KT 18/05 A301 RMK A01 T01750048  RH  043%=      5-min Rain = 0
KCR2 151847Z 23004KT 18/05 A301 RMK A01 T01750046  RH  043%=      5-min Rain = 0
KCR2 151848Z 23007KT 18/05 A301 RMK A01 T01750048  RH  043%=      5-min Rain = 0
KCR2 151849Z 22009KT 18/05 A301 RMK A01 T01750047  RH  043%=      5-min Rain = 0
KCR2 151850Z 22007KT 17/05 A301 RMK A01 T01740045  RH  042%=      5-min Rain = 0
KCR2 151851Z 21007KT 17/04 A301 RMK A01 T01730043  RH  042%=      5-min Rain = 0
KCR2 151852Z 22008KT 17/05 A3009 RMK A01 T01730049  RH  044%=      5-min Rain = 0
KCR2 151853Z 22009KT 17/05 A3009 RMK A01 T01740048  RH  043%=      5-min Rain = 0
KCR2 151854Z 21006KT 18/05 A3009 RMK A01 T01750049  RH  043%=      5-min Rain = 0
KCR2 151855Z 22002KT 18/05 A3009 RMK A01 T01760046  RH  042%=      5-min Rain = 0
KCR2 151856Z 21006KT 18/05 A3009 RMK A01 T01770050  RH  043%=      5-min Rain = 0
KCR2 151857Z 21006KT 18/05 A3009 RMK A01 T01780050  RH  043%=      5-min Rain = 0
KCR2 151858Z 20005KT 18/05 A3009 RMK A01 T01780050  RH  043%=      5-min Rain = 0
KCR2 151859Z 22006KT 18/05 A3009 RMK A01 T01790052  RH  043%=      5-min Rain = 0
KCR2 151900Z 25004KT 18/05 A3009 RMK A01 T01800049  RH  042%=      5-min Rain = 0
KCR2 151901Z 23005KT 18/05 A3009 RMK A01 T01800050  RH  042%=      5-min Rain = 0
KCR2 151902Z 20006KT 18/05 A3009 RMK A01 T01810052  RH  043%=      5-min Rain = 0
KCR2 151903Z 22008KT 18/05 A3009 RMK A01 T01830052  RH  042%=      5-min Rain = 0
KCR2 151904Z 22007KT 18/05 A3009 RMK A01 T01840049  RH  041%=      5-min Rain = 0
KCR2 151905Z 23008KT 18/05 A3008 RMK A01 T01840051  RH  041%=      5-min Rain = 0
KCR2 151906Z 23005KT 18/05 A3008 RMK A01 T01840049  RH  041%=      5-min Rain = 0
KCR2 151907Z 26002KT 18/05 A3008 RMK A01 T01840046  RH  040%=      5-min Rain = 0
KCR2 151908Z 23002KT 18/04 A3008 RMK A01 T01840044  RH  039%=      5-min Rain = 0
KCR2 151909Z 22003KT 19/05 A3008 RMK A01 T01850047  RH  040%=      5-min Rain = 0
KCR2 151910Z 23007KT 19/05 A3008 RMK A01 T01850046  RH  040%=      5-min Rain = 0
KCR2 151911Z 23006KT 18/04 A3008 RMK A01 T01840043  RH  039%=      5-min Rain = 0
KCR2 151912Z 22006KT 18/04 A3008 RMK A01 T01830041  RH  039%=      5-min Rain = 0
KCR2 151913Z 22006KT 18/04 A3008 RMK A01 T01830043  RH  040%=      5-min Rain = 0
KCR2 151914Z 22005KT 18/04 A3008 RMK A01 T01830042  RH  039%=      5-min Rain = 0
KCR2 151915Z 25006KT 18/04 A3008 RMK A01 T01840042  RH  039%=      5-min Rain = 0
KCR2 151916Z 24006KT 18/05 A3008 RMK A01 T01840047  RH  040%=      5-min Rain = 0
KCR2 151917Z 22009KT 19/05 A3008 RMK A01 T01860049  RH  040%=      5-min Rain = 0
KCR2 151918Z 22009KT 19/05 A3008 RMK A01 T01860047  RH  040%=      5-min Rain = 0
KCR2 151919Z 22006KT 19/05 A3008 RMK A01 T01860046  RH  039%=      5-min Rain = 0
KCR2 151920Z 23005KT 19/04 A3008 RMK A01 T01860042  RH  039%=      5-min Rain = 0
KCR2 151921Z 23004KT 19/04 A3008 RMK A01 T01850039  RH  038%=      5-min Rain = 0
KCR2 151922Z 21002KT 18/04 A3008 RMK A01 T01840035  RH  037%=      5-min Rain = 0
KCR2 151923Z 18002KT 18/04 A3008 RMK A01 T01830037  RH  038%=      5-min Rain = 0
KCR2 151924Z 11000KT 19/04 A3007 RMK A01 T01850037  RH  037%=      5-min Rain = 0
KCR2 151925Z 30000KT 19/04 A3007 RMK A01 T01870042  RH  038%=      5-min Rain = 0
KCR2 151926Z 27002KT 19/05 A3007 RMK A01 T01890046  RH  039%=      5-min Rain = 0
KCR2 151927Z 26003KT 19/04 A3007 RMK A01 T01900044  RH  038%=      5-min Rain = 0
KCR2 151928Z 27005KT 19/04 A3007 RMK A01 T01900040  RH  037%=      5-min Rain = 0
KCR2 151929Z 29006KT 19/03 A3007 RMK A01 T01900032  RH  035%=      5-min Rain = 0
KCR2 151930Z 28004KT 19/03 A3007 RMK A01 T01880028  RH  035%=      5-min Rain = 0
KCR2 151931Z 27004KT 19/03 A3007 RMK A01 T01870033  RH  036%=      5-min Rain = 0
KCR2 151932Z 28006KT 19/03 A3007 RMK A01 T01870031  RH  036%=      5-min Rain = 0
KCR2 151933Z 27004KT 19/03 A3007 RMK A01 T01860032  RH  036%=      5-min Rain = 0
KCR2 151934Z 26007KT 19/04 A3007 RMK A01 T01870037  RH  037%=      5-min Rain = 0
KCR2 151935Z 24007KT 19/03 A3007 RMK A01 T01890032  RH  035%=      5-min Rain = 0
KCR2 151936Z 24006KT 19/03 A3007 RMK A01 T01890034  RH  036%=      5-min Rain = 0
KCR2 151937Z 25007KT 19/04 A3007 RMK A01 T01910042  RH  037%=      5-min Rain = 0
KCR2 151938Z 24008KT 19/04 A3007 RMK A01 T01920039  RH  036%=      5-min Rain = 0
KCR2 151939Z 24007KT 19/04 A3007 RMK A01 T01910037  RH  036%=      5-min Rain = 0
KCR2 151940Z 25007KT 19/04 A3007 RMK A01 T01910036  RH  036%=      5-min Rain = 0
KCR2 151941Z 25005KT 19/04 A3007 RMK A01 T01910035  RH  036%=      5-min Rain = 0
KCR2 151942Z 25008KT 19/04 A3007 RMK A01 T01910038  RH  036%=      5-min Rain = 0
KCR2 151943Z 23006KT 19/04 A3007 RMK A01 T01920035  RH  035%=      5-min Rain = 0
KCR2 151944Z 23005KT 19/04 A3007 RMK A01 T01930039  RH  036%=      5-min Rain = 0
KCR2 151945Z 28005KT 19/04 A3007 RMK A01 T01930036  RH  036%=      5-min Rain = 0
KCR2 151946Z 29006KT 19/04 A3006 RMK A01 T01920037  RH  036%=      5-min Rain = 0
KCR2 151947Z 26006KT 19/04 A3006 RMK A01 T01930038  RH  036%=      5-min Rain = 0
KCR2 151948Z 24007KT 19/04 A3006 RMK A01 T01930041  RH  037%=      5-min Rain = 0
KCR2 151949Z 26004KT 19/03 A3006 RMK A01 T01930034  RH  035%=      5-min Rain = 0
KCR2 151950Z 23003KT 19/03 A3006 RMK A01 T01920033  RH  035%=      5-min Rain = 0
KCR2 151951Z 27004KT 19/03 A3006 RMK A01 T01920034  RH  035%=      5-min Rain = 0
KCR2 151952Z 28007KT 19/04 A3006 RMK A01 T01930038  RH  036%=      5-min Rain = 0
KCR2 151953Z 28007KT 19/04 A3006 RMK A01 T01940037  RH  035%=      5-min Rain = 0
KCR2 151954Z 26007KT 19/04 A3006 RMK A01 T01940040  RH  036%=      5-min Rain = 0
KCR2 151955Z 30006KT 19/04 A3006 RMK A01 T01940042  RH  037%=      5-min Rain = 0
KCR2 151956Z 27005KT 20/04 A3006 RMK A01 T01950042  RH  036%=      5-min Rain = 0
KCR2 151957Z 28005KT 20/04 A3006 RMK A01 T01960044  RH  037%=      5-min Rain = 0
KCR2 151958Z 25005KT 20/04 A3006 RMK A01 T01970041  RH  036%=      5-min Rain = 0
KCR2 151959Z 20006KT 20/04 A3006 RMK A01 T01970041  RH  036%=      5-min Rain = 0
KCR2 152000Z 20006KT 20/04 A3006 RMK A01 T01960041  RH  036%=      5-min Rain = 0
KCR2 152001Z 22007KT 20/05 A3006 RMK A01 T01960045  RH  037%=      5-min Rain = 0
KCR2 152002Z 23006KT 20/04 A3006 RMK A01 T01980043  RH  036%=      5-min Rain = 0
KCR2 152003Z 24005KT 20/04 A3006 RMK A01 T01990036  RH  034%=      5-min Rain = 0
KCR2 152004Z 22006KT 20/04 A3006 RMK A01 T01990039  RH  035%=      5-min Rain = 0
KCR2 152005Z 23007KT 20/04 A3006 RMK A01 T02000037  RH  034%=      5-min Rain = 0
KCR2 152006Z 24006KT 20/03 A3006 RMK A01 T02000031  RH  033%=      5-min Rain = 0
KCR2 152007Z 26006KT 20/04 A3006 RMK A01 T02000038  RH  034%=      5-min Rain = 0
KCR2 152008Z 29005KT 20/03 A3006 RMK A01 T02010034  RH  033%=      5-min Rain = 0
KCR2 152009Z 26006KT 20/04 A3006 RMK A01 T02030035  RH  033%=      5-min Rain = 0
KCR2 152010Z 25009KT 20/04 A3005 RMK A01 T02030035  RH  033%=      5-min Rain = 0
KCR2 152011Z 26008KT 20/03 A3006 RMK A01 T02020031  RH  032%=      5-min Rain = 0
KCR2 152012Z 25006KT 20/03 A3005 RMK A01 T01990025  RH  032%=      5-min Rain = 0
KCR2 152013Z 25004KT 20/03 A3005 RMK A01 T01980029  RH  033%=      5-min Rain = 0
KCR2 152014Z 29004KT 20/03 A3005 RMK A01 T01970027  RH  032%=      5-min Rain = 0
KCR2 152015Z 30005KT 20/03 A3005 RMK A01 T01980030  RH  033%=      5-min Rain = 0
KCR2 152016Z 23004KT 20/03 A3005 RMK A01 T01980032  RH  033%=      5-min Rain = 0
KCR2 152017Z 24007KT 20/04 A3005 RMK A01 T02010036  RH  034%=      5-min Rain = 0
KCR2 152018Z 27008KT 20/03 A3005 RMK A01 T02030033  RH  032%=      5-min Rain = 0
KCR2 152019Z 24010KT 20/03 A3005 RMK A01 T02040033  RH  032%=      5-min Rain = 0
KCR2 152020Z 24009KT 20/03 A3005 RMK A01 T02040028  RH  031%=      5-min Rain = 0
KCR2 152021Z 24007KT 20/03 A3005 RMK A01 T02030029  RH  032%=      5-min Rain = 0
KCR2 152022Z 23009KT 20/03 A3005 RMK A01 T02020032  RH  032%=      5-min Rain = 0
KCR2 152023Z 23009KT 20/03 A3005 RMK A01 T02030030  RH  032%=      5-min Rain = 0
KCR2 152024Z 22008KT 20/02 A3005 RMK A01 T02020024  RH  031%=      5-min Rain = 0
KCR2 152025Z 23009KT 20/03 A3005 RMK A01 T02010025  RH  031%=      5-min Rain = 0
KCR2 152026Z 24007KT 20/03 A3005 RMK A01 T02010027  RH  032%=      5-min Rain = 0
KCR2 152027Z 25005KT 20/03 A3005 RMK A01 T02010027  RH  031%=      5-min Rain = 0
KCR2 152028Z 25005KT 20/03 A3005 RMK A01 T02020027  RH  031%=      5-min Rain = 0
KCR2 152029Z 25004KT 20/02 A3005 RMK A01 T02020022  RH  030%=      5-min Rain = 0
KCR2 152030Z 25008KT 20/03 A3005 RMK A01 T02020028  RH  032%=      5-min Rain = 0
KCR2 152031Z 23007KT 20/03 A3005 RMK A01 T02020025  RH  031%=      5-min Rain = 0
KCR2 152032Z 24005KT 20/03 A3004 RMK A01 T02030028  RH  031%=      5-min Rain = 0
KCR2 152033Z 24007KT 21/03 A3004 RMK A01 T02050030  RH  032%=      5-min Rain = 0
KCR2 152034Z 25010KT 21/03 A3004 RMK A01 T02060027  RH  031%=      5-min Rain = 0
KCR2 152035Z 25010KT 21/03 A3004 RMK A01 T02060025  RH  030%=      5-min Rain = 0
KCR2 152036Z 25011KT 21/03 A3004 RMK A01 T02060028  RH  031%=      5-min Rain = 0
KCR2 152037Z 26008KT 21/02 A3004 RMK A01 T02060023  RH  030%=      5-min Rain = 0
KCR2 152038Z 27006KT 21/02 A3004 RMK A01 T02050024  RH  030%=      5-min Rain = 0
KCR2 152039Z 26006KT 21/02 A3004 RMK A01 T02050023  RH  030%=      5-min Rain = 0
KCR2 152040Z 28005KT 21/03 A3004 RMK A01 T02050027  RH  031%=      5-min Rain = 0
KCR2 152041Z 27004KT 21/03 A3004 RMK A01 T02060025  RH  030%=      5-min Rain = 0
KCR2 152042Z 26009KT 21/03 A3004 RMK A01 T02060026  RH  030%=      5-min Rain = 0
KCR2 152043Z 24009G14KT 21/03 A3004 RMK A01 T02080030  RH  031%=      5-min Rain = 0
KCR2 152044Z 25011KT 21/03 A3004 RMK A01 T02080028  RH  030%=      5-min Rain = 0
KCR2 152045Z 25009KT 21/03 A3004 RMK A01 T02090029  RH  030%=      5-min Rain = 0
KCR2 152046Z 25011KT 21/03 A3004 RMK A01 T02080027  RH  030%=      5-min Rain = 0
KCR2 152047Z 26009KT 21/02 A3004 RMK A01 T02070023  RH  030%=      5-min Rain = 0
KCR2 152048Z 25006KT 21/02 A3004 RMK A01 T02050023  RH  030%=      5-min Rain = 0
KCR2 152049Z 23010KT 21/03 A3004 RMK A01 T02050027  RH  031%=      5-min Rain = 0
KCR2 152050Z 24010KT 21/03 A3004 RMK A01 T02070028  RH  031%=      5-min Rain = 0
KCR2 152051Z 24007KT 21/02 A3004 RMK A01 T02070020  RH  029%=      5-min Rain = 0
KCR2 152052Z 24007KT 21/02 A3004 RMK A01 T02060024  RH  030%=      5-min Rain = 0
KCR2 152053Z 24011KT 21/03 A3004 RMK A01 T02080028  RH  031%=      5-min Rain = 0
KCR2 152054Z 25008G14KT 21/02 A3004 RMK A01 T02080021  RH  029%=      5-min Rain = 0
KCR2 152055Z 28007KT 21/02 A3004 RMK A01 T02080023  RH  029%=      5-min Rain = 0
KCR2 152056Z 27007KT 21/03 A3004 RMK A01 T02080027  RH  030%=      5-min Rain = 0
KCR2 152057Z 24009KT 21/03 A3004 RMK A01 T02090030  RH  031%=      5-min Rain = 0
KCR2 152058Z 22009KT 21/03 A3004 RMK A01 T02090029  RH  031%=      5-min Rain = 0
KCR2 152059Z 22007KT 21/03 A3004 RMK A01 T02090027  RH  030%=      5-min Rain = 0
KCR2 152100Z 22007KT 21/03 A3004 RMK A01 T02080025  RH  030%=      5-min Rain = 0
KCR2 152101Z 24008KT 21/02 A3004 RMK A01 T02080022  RH  029%=      5-min Rain = 0
KCR2 152102Z 27011G18KT 21/02 A3004 RMK A01 T02090024  RH  029%=      5-min Rain = 0
KCR2 152103Z 25011KT 21/03 A3004 RMK A01 T02100028  RH  030%=      5-min Rain = 0
KCR2 152104Z 27010KT 21/03 A3004 RMK A01 T02110026  RH  030%=      5-min Rain = 0
KCR2 152105Z 25010KT 21/03 A3004 RMK A01 T02110025  RH  029%=      5-min Rain = 0
KCR2 152106Z 25007KT 21/02 A3004 RMK A01 T02100020  RH  028%=      5-min Rain = 0
KCR2 152107Z 25007KT 21/02 A3004 RMK A01 T02090024  RH  029%=      5-min Rain = 0
KCR2 152108Z 27008KT 21/02 A3004 RMK A01 T02090023  RH  029%=      5-min Rain = 0
KCR2 152109Z 25011KT 21/02 A3004 RMK A01 T02100023  RH  029%=      5-min Rain = 0
KCR2 152110Z 24008KT 21/02 A3004 RMK A01 T02120024  RH  029%=      5-min Rain = 0
KCR2 152111Z 25009KT 21/03 A3004 RMK A01 T02130026  RH  029%=      5-min Rain = 0
KCR2 152112Z 24013KT 21/02 A3004 RMK A01 T02140020  RH  028%=      5-min Rain = 0
KCR2 152113Z 23011KT 21/02 A3004 RMK A01 T02140017  RH  027%=      5-min Rain = 0
KCR2 152114Z 26009KT 21/02 A3004 RMK A01 T02130017  RH  027%=      5-min Rain = 0
KCR2 152115Z 27008KT 21/02 A3004 RMK A01 T02130020  RH  028%=      5-min Rain = 0
KCR2 152116Z 25011KT 21/02 A3004 RMK A01 T02140019  RH  027%=      5-min Rain = 0
KCR2 152117Z 26012KT 22/02 A3004 RMK A01 T02150017  RH  027%=      5-min Rain = 0
KCR2 152118Z 26011KT 21/01 A3004 RMK A01 T02140013  RH  026%=      5-min Rain = 0
KCR2 152119Z 26013KT 21/02 A3004 RMK A01 T02130016  RH  027%=      5-min Rain = 0
KCR2 152120Z 27011KT 21/01 A3004 RMK A01 T02130012  RH  026%=      5-min Rain = 0
KCR2 152121Z 27008KT 21/01 A3004 RMK A01 T02120012  RH  027%=      5-min Rain = 0
KCR2 152122Z 27009KT 21/02 A3004 RMK A01 T02120017  RH  027%=      5-min Rain = 0
KCR2 152123Z 26011KT 21/01 A3004 RMK A01 T02130014  RH  027%=      5-min Rain = 0
KCR2 152124Z 26012KT 21/02 A3004 RMK A01 T02130016  RH  027%=      5-min Rain = 0
KCR2 152125Z 27012KT 21/02 A3004 RMK A01 T02130016  RH  027%=      5-min Rain = 0
KCR2 152126Z 28010G15KT 21/01 A3004 RMK A01 T02130013  RH  027%=      5-min Rain = 0
KCR2 152127Z 30009KT 21/02 A3004 RMK A01 T02110020  RH  028%=      5-min Rain = 0
KCR2 152128Z 29011KT 21/02 A3004 RMK A01 T02130018  RH  027%=      5-min Rain = 0
KCR2 152129Z 27009KT 21/01 A3004 RMK A01 T02140013  RH  026%=      5-min Rain = 0
KCR2 152130Z 28006KT 21/01 A3004 RMK A01 T02120013  RH  027%=      5-min Rain = 0
KCR2 152131Z 28008KT 21/02 A3004 RMK A01 T02110016  RH  027%=      5-min Rain = 0
KCR2 152132Z 28007KT 21/01 A3004 RMK A01 T02110013  RH  027%=      5-min Rain = 0
KCR2 152133Z 26008KT 21/01 A3004 RMK A01 T02110014  RH  027%=      5-min Rain = 0
KCR2 152134Z 25009KT 21/02 A3004 RMK A01 T02120017  RH  027%=      5-min Rain = 0
KCR2 152135Z 25012KT 21/02 A3004 RMK A01 T02140017  RH  027%=      5-min Rain = 0
KCR2 152136Z 25010KT 21/02 A3004 RMK A01 T02140015  RH  027%=      5-min Rain = 0
KCR2 152137Z 24007KT 21/01 A3004 RMK A01 T02140011  RH  026%=      5-min Rain = 0
KCR2 152138Z 25007KT 21/02 A3004 RMK A01 T02130017  RH  027%=      5-min Rain = 0
KCR2 152139Z 26006KT 21/02 A3004 RMK A01 T02140015  RH  027%=      5-min Rain = 0
KCR2 152140Z 28009KT 22/02 A3004 RMK A01 T02150017  RH  027%=      5-min Rain = 0
KCR2 152141Z 29009KT 22/02 A3004 RMK A01 T02170021  RH  027%=      5-min Rain = 0
KCR2 152142Z 29010KT 22/01 A3004 RMK A01 T02170013  RH  026%=      5-min Rain = 0
KCR2 152143Z 28008KT 22/02 A3004 RMK A01 T02160016  RH  027%=      5-min Rain = 0
KCR2 152144Z 28011KT 22/02 A3003 RMK A01 T02160015  RH  026%=      5-min Rain = 0
KCR2 152145Z 28011KT 22/02 A3003 RMK A01 T02160016  RH  027%=      5-min Rain = 0
KCR2 152146Z 28010KT 22/02 A3003 RMK A01 T02160016  RH  026%=      5-min Rain = 0
KCR2 152147Z 27006KT 22/01 A3003 RMK A01 T02160012  RH  026%=      5-min Rain = 0
KCR2 152148Z 29005KT 22/01 A3003 RMK A01 T02150012  RH  026%=      5-min Rain = 0
KCR2 152149Z 31007KT 22/01 A3003 RMK A01 T02150014  RH  026%=      5-min Rain = 0
KCR2 152150Z 31007KT 22/01 A3003 RMK A01 T02150012  RH  026%=      5-min Rain = 0
KCR2 152151Z 30007KT 22/01 A3003 RMK A01 T02150014  RH  026%=      5-min Rain = 0
KCR2 152152Z 31007KT 21/02 A3003 RMK A01 T02140016  RH  027%=      5-min Rain = 0
KCR2 152153Z 30008KT 21/02 A3003 RMK A01 T02140016  RH  027%=      5-min Rain = 0
KCR2 152154Z 29008KT 22/02 A3003 RMK A01 T02150017  RH  027%=      5-min Rain = 0
KCR2 152155Z 32009KT 22/01 A3003 RMK A01 T02150010  RH  026%=      5-min Rain = 0
KCR2 152156Z 30005KT 22/01 A3003 RMK A01 T02150007  RH  025%=      5-min Rain = 0
KCR2 152157Z 29005KT 22/01 A3003 RMK A01 T02150010  RH  026%=      5-min Rain = 0
KCR2 152158Z 29005KT 22/02 A3003 RMK A01 T02150017  RH  027%=      5-min Rain = 0
KCR2 152159Z 29006KT 22/01 A3003 RMK A01 T02160014  RH  026%=      5-min Rain = 0
KCR2 152200Z 27007KT 22/01 A3003 RMK A01 T02160009  RH  025%=      5-min Rain = 0
KCR2 152201Z 27008KT 22/01 A3003 RMK A01 T02170014  RH  026%=      5-min Rain = 0
KCR2 152202Z 28010KT 22/01 A3003 RMK A01 T02180008  RH  025%=      5-min Rain = 0
KCR2 152203Z 29010KT 22/M00 A3003 RMK A01 T02181004  RH  023%=      5-min Rain = 0
KCR2 152204Z 30007KT 22/M00 A3003 RMK A01 T02171001  RH  023%=      5-min Rain = 0
KCR2 152205Z 30007KT 22/01 A3003 RMK A01 T02180006  RH  024%=      5-min Rain = 0
KCR2 152206Z 29006KT 22/00 A3003 RMK A01 T02200003  RH  024%=      5-min Rain = 0
KCR2 152207Z 27009KT 22/M00 A3003 RMK A01 T02211001  RH  023%=      5-min Rain = 0
KCR2 152208Z 29010KT 22/00 A3003 RMK A01 T02210003  RH  023%=      5-min Rain = 0
KCR2 152209Z 30007KT 22/M00 A3003 RMK A01 T02211002  RH  023%=      5-min Rain = 0
KCR2 152210Z 28012KT 22/M00 A3003 RMK A01 T02211002  RH  023%=      5-min Rain = 0
KCR2 152211Z 28010KT 22/M00 A3003 RMK A01 T02201004  RH  023%=      5-min Rain = 0
KCR2 152212Z 27009KT 22/M00 A3002 RMK A01 T02191001  RH  023%=      5-min Rain = 0
KCR2 152213Z 28009KT 22/M00 A3002 RMK A01 T02191001  RH  023%=      5-min Rain = 0
KCR2 152214Z 28008KT 22/M00 A3002 RMK A01 T02191004  RH  023%=      5-min Rain = 0
KCR2 152215Z 27007KT 22/M00 A3002 RMK A01 T02191001  RH  023%=      5-min Rain = 0
KCR2 152216Z 30007KT 22/00 A3002 RMK A01 T02190002  RH  024%=      5-min Rain = 0
KCR2 152217Z 31008KT 22/00 A3002 RMK A01 T02210002  RH  023%=      5-min Rain = 0
KCR2 152218Z 31010KT 22/M00 A3002 RMK A01 T02221001  RH  023%=      5-min Rain = 0
KCR2 152219Z 31008KT 22/00 A3002 RMK A01 T02220003  RH  023%=      5-min Rain = 0
KCR2 152220Z 30010KT 22/00 A3002 RMK A01 T02220003  RH  023%=      5-min Rain = 0
KCR2 152221Z 30008KT 22/M01 A3002 RMK A01 T02231009  RH  021%=      5-min Rain = 0
KCR2 152222Z 31007KT 22/M01 A3002 RMK A01 T02221005  RH  022%=      5-min Rain = 0
KCR2 152223Z 30006KT 22/M00 A3001 RMK A01 T02221003  RH  022%=      5-min Rain = 0
KCR2 152224Z 28005KT 22/M01 A3001 RMK A01 T02211006  RH  022%=      5-min Rain = 0
KCR2 152225Z 28004KT 22/M00 A3001 RMK A01 T02211004  RH  022%=      5-min Rain = 0
KCR2 152226Z 30003KT 22/00 A3001 RMK A01 T02220004  RH  024%=      5-min Rain = 0
KCR2 152227Z 30005KT 22/00 A3001 RMK A01 T02230001  RH  023%=      5-min Rain = 0
KCR2 152228Z 29006KT 22/M01 A3001 RMK A01 T02231007  RH  022%=      5-min Rain = 0
KCR2 152229Z 29009KT 22/M01 A3002 RMK A01 T02231005  RH  022%=      5-min Rain = 0
KCR2 152230Z 29008KT 22/M01 A3002 RMK A01 T02221007  RH  022%=      5-min Rain = 0
KCR2 152231Z 31010KT 22/00 A3002 RMK A01 T02220002  RH  023%=      5-min Rain = 0
KCR2 152232Z 31008KT 22/M01 A3002 RMK A01 T02231007  RH  022%=      5-min Rain = 0
KCR2 152233Z 30007KT 22/M00 A3002 RMK A01 T02231003  RH  022%=      5-min Rain = 0
KCR2 152234Z 30008KT 22/M00 A3002 RMK A01 T02231002  RH  022%=      5-min Rain = 0
KCR2 152235Z 30010KT 22/M01 A3002 RMK A01 T02231007  RH  022%=      5-min Rain = 0
KCR2 152236Z 31010KT 22/M01 A3002 RMK A01 T02221010  RH  021%=      5-min Rain = 0
KCR2 152237Z 32009KT 22/M01 A3002 RMK A01 T02221008  RH  022%=      5-min Rain = 0
KCR2 152238Z 31009KT 22/M01 A3002 RMK A01 T02221008  RH  022%=      5-min Rain = 0
KCR2 152239Z 31009KT 22/M01 A3001 RMK A01 T02221007  RH  022%=      5-min Rain = 0
KCR2 152240Z 31010KT 22/M01 A3001 RMK A01 T02231006  RH  022%=      5-min Rain = 0
KCR2 152241Z 31011KT 22/M01 A3001 RMK A01 T02231005  RH  022%=      5-min Rain = 0
KCR2 152242Z 31010KT 22/M01 A3001 RMK A01 T02231009  RH  021%=      5-min Rain = 0
KCR2 152243Z 31008KT 22/M01 A3001 RMK A01 T02221007  RH  022%=      5-min Rain = 0
KCR2 152244Z 31009KT 22/M01 A3002 RMK A01 T02221008  RH  022%=      5-min Rain = 0
KCR2 152245Z 30009KT 22/M01 A3002 RMK A01 T02211008  RH  022%=      5-min Rain = 0
KCR2 152246Z 30008KT 22/M01 A3002 RMK A01 T02211009  RH  022%=      5-min Rain = 0
KCR2 152247Z 31009KT 22/M01 A3002 RMK A01 T02211005  RH  022%=      5-min Rain = 0
KCR2 152248Z 31008KT 22/M01 A3001 RMK A01 T02201007  RH  022%=      5-min Rain = 0
KCR2 152249Z 30007KT 22/M01 A3001 RMK A01 T02201007  RH  022%=      5-min Rain = 0
KCR2 152250Z 29009KT 22/M00 A3001 RMK A01 T02211004  RH  022%=      5-min Rain = 0
KCR2 152251Z 31009KT 22/M01 A3001 RMK A01 T02211007  RH  022%=      5-min Rain = 0
KCR2 152252Z 32008KT 22/M01 A3001 RMK A01 T02211005  RH  022%=      5-min Rain = 0
KCR2 152253Z 30009KT 22/M00 A3002 RMK A01 T02211003  RH  022%=      5-min Rain = 0
KCR2 152254Z 30012KT 22/M01 A3002 RMK A01 T02221005  RH  022%=      5-min Rain = 0
KCR2 152255Z 31009KT 22/M01 A3002 RMK A01 T02211006  RH  022%=      5-min Rain = 0
KCR2 152256Z 31008KT 22/M01 A3002 RMK A01 T02211006  RH  022%=      5-min Rain = 0
KCR2 152257Z 30008KT 22/M01 A3002 RMK A01 T02211008  RH  022%=      5-min Rain = 0
KCR2 152258Z 31007KT 22/M00 A3002 RMK A01 T02201004  RH  022%=      5-min Rain = 0
KCR2 152259Z 32009KT 22/M00 A3002 RMK A01 T02201001  RH  023%=      5-min Rain = 0
KCR2 152300Z 32008KT 22/M01 A3002 RMK A01 T02191008  RH  022%=      5-min Rain = 0
KCR2 152301Z 30005KT 22/M01 A3002 RMK A01 T02181008  RH  022%=      5-min Rain = 0
KCR2 152302Z 31004KT 22/M01 A3001 RMK A01 T02181006  RH  022%=      5-min Rain = 0
KCR2 152303Z 29004KT 22/M01 A3001 RMK A01 T02181007  RH  022%=      5-min Rain = 0
KCR2 152304Z 29005KT 22/M01 A3001 RMK A01 T02181007  RH  022%=      5-min Rain = 0
KCR2 152305Z 31005KT 22/M00 A3001 RMK A01 T02181001  RH  023%=      5-min Rain = 0
KCR2 152306Z 32006KT 22/M00 A3001 RMK A01 T02181002  RH  023%=      5-min Rain = 0
KCR2 152307Z 29006KT 22/00 A3001 RMK A01 T02180001  RH  024%=      5-min Rain = 0
KCR2 152308Z 31007KT 22/M01 A3001 RMK A01 T02181005  RH  023%=      5-min Rain = 0
KCR2 152309Z 30009KT 22/M01 A3001 RMK A01 T02181005  RH  023%=      5-min Rain = 0
KCR2 152310Z 29008KT 22/M01 A3001 RMK A01 T02181005  RH  023%=      5-min Rain = 0
KCR2 152311Z 29006KT 22/M00 A3001 RMK A01 T02181004  RH  023%=      5-min Rain = 0
KCR2 152312Z 29007KT 22/00 A3001 RMK A01 T02180002  RH  024%=      5-min Rain = 0
KCR2 152313Z 30007KT 22/00 A3001 RMK A01 T02170001  RH  024%=      5-min Rain = 0
KCR2 152314Z 31009KT 22/M00 A3001 RMK A01 T02181004  RH  023%=      5-min Rain = 0
KCR2 152315Z 32008KT 22/M00 A3001 RMK A01 T02181003  RH  023%=      5-min Rain = 0
KCR2 152316Z 31009KT 22/M00 A3001 RMK A01 T02191002  RH  023%=      5-min Rain = 0
KCR2 152317Z 30009KT 22/M00 A3001 RMK A01 T02191004  RH  023%=      5-min Rain = 0
KCR2 152318Z 31008KT 22/M00 A3001 RMK A01 T02191003  RH  023%=      5-min Rain = 0
KCR2 152319Z 31007KT 22/M00 A3001 RMK A01 T02191002  RH  023%=      5-min Rain = 0
KCR2 152320Z 29006KT 22/00 A3001 RMK A01 T02180002  RH  024%=      5-min Rain = 0
KCR2 152321Z 29007KT 22/00 A3001 RMK A01 T02180000  RH  023%=      5-min Rain = 0
KCR2 152322Z 29007KT 22/00 A3001 RMK A01 T021800-0  RH  023%=      5-min Rain = 0
KCR2 152323Z 31007KT 22/M00 A3001 RMK A01 T02171003  RH  023%=      5-min Rain = 0
KCR2 152324Z 31009KT 22/M01 A3001 RMK A01 T02171006  RH  023%=      5-min Rain = 0
KCR2 152325Z 31008KT 22/M01 A3001 RMK A01 T02171007  RH  022%=      5-min Rain = 0
KCR2 152326Z 30007KT 22/M01 A3001 RMK A01 T02171006  RH  023%=      5-min Rain = 0
KCR2 152327Z 30007KT 22/M01 A3001 RMK A01 T02181005  RH  023%=      5-min Rain = 0
KCR2 152328Z 29009KT 22/M00 A3001 RMK A01 T02181002  RH  023%=      5-min Rain = 0
KCR2 152329Z 30009KT 22/M00 A3001 RMK A01 T02171003  RH  023%=      5-min Rain = 0
KCR2 152330Z 29008KT 22/M00 A3001 RMK A01 T02171004  RH  023%=      5-min Rain = 0
KCR2 152331Z 29006KT 22/00 A3001 RMK A01 T021700-0  RH  024%=      5-min Rain = 0
KCR2 152332Z 29006KT 22/00 A3001 RMK A01 T02160003  RH  024%=      5-min Rain = 0
KCR2 152333Z 29007KT 22/01 A3001 RMK A01 T02150006  RH  025%=      5-min Rain = 0
KCR2 152334Z 30007KT 21/00 A3001 RMK A01 T02140002  RH  024%=      5-min Rain = 0
KCR2 152335Z 29007KT 21/00 A3001 RMK A01 T021400-0  RH  024%=      5-min Rain = 0
KCR2 152336Z 28006KT 21/00 A3001 RMK A01 T02130004  RH  025%=      5-min Rain = 0
KCR2 152337Z 28006KT 21/00 A3001 RMK A01 T02120004  RH  025%=      5-min Rain = 0
KCR2 152338Z 29005KT 21/01 A3001 RMK A01 T02110008  RH  026%=      5-min Rain = 0
KCR2 152339Z 29007KT 21/01 A3001 RMK A01 T02100007  RH  026%=      5-min Rain = 0
KCR2 152340Z 28007KT 21/01 A3001 RMK A01 T02100007  RH  026%=      5-min Rain = 0
KCR2 152341Z 29007KT 21/01 A3001 RMK A01 T02100005  RH  025%=      5-min Rain = 0
KCR2 152342Z 30006KT 21/01 A3001 RMK A01 T02100007  RH  026%=      5-min Rain = 0
KCR2 152343Z 30005KT 21/01 A3001 RMK A01 T02100006  RH  026%=      5-min Rain = 0
KCR2 152344Z 30005KT 21/01 A3001 RMK A01 T02090007  RH  026%=      5-min Rain = 0
KCR2 152345Z 30005KT 21/01 A3001 RMK A01 T02090006  RH  026%=      5-min Rain = 0
KCR2 152346Z 29005KT 21/01 A3001 RMK A01 T02080008  RH  026%=      5-min Rain = 0
KCR2 152347Z 29004KT 21/01 A3001 RMK A01 T02070009  RH  027%=      5-min Rain = 0
KCR2 152348Z 29005KT 21/01 A3001 RMK A01 T02060008  RH  027%=      5-min Rain = 0
KCR2 152349Z 28005KT 21/01 A3002 RMK A01 T02060011  RH  027%=      5-min Rain = 0
KCR2 152350Z 29005KT 21/01 A3002 RMK A01 T02060010  RH  027%=      5-min Rain = 0
KCR2 152351Z 29005KT 21/01 A3002 RMK A01 T02060011  RH  027%=      5-min Rain = 0
KCR2 152352Z 30005KT 21/01 A3002 RMK A01 T02050009  RH  027%=      5-min Rain = 0
KCR2 152353Z 29004KT 21/01 A3002 RMK A01 T02050009  RH  027%=      5-min Rain = 0
KCR2 152354Z 29004KT 20/01 A3002 RMK A01 T02040009  RH  027%=      5-min Rain = 0
KCR2 152355Z 29004KT 20/01 A3002 RMK A01 T02040010  RH  027%=      5-min Rain = 0
KCR2 152356Z 29004KT 20/01 A3002 RMK A01 T02040010  RH  027%=      5-min Rain = 0
KCR2 152357Z 28004KT 20/01 A3002 RMK A01 T02040010  RH  028%=      5-min Rain = 0
KCR2 152358Z 28004KT 20/01 A3002 RMK A01 T02040010  RH  027%=      5-min Rain = 0
KCR2 152359Z 28004KT 20/01 A3002 RMK A01 T02030005  RH  027%=      5-min Rain = 0
KCR2 160000Z 28005KT 20/01 A3002 RMK A01 T02030008  RH  027%=      5-min Rain = 0
KCR2 160001Z 28005KT 20/01 A3002 RMK A01 T02030010  RH  028%=      5-min Rain = 0
KCR2 160002Z 28005KT 20/02 A3002 RMK A01 T02030016  RH  029%=      5-min Rain = 0
KCR2 160003Z 28004KT 20/01 A3002 RMK A01 T02010014  RH  029%=      5-min Rain = 0
KCR2 160004Z 26003KT 20/02 A3002 RMK A01 T02010017  RH  029%=      5-min Rain = 0
KCR2 160005Z 22003KT 20/03 A3002 RMK A01 T01980025  RH  032%=      5-min Rain = 0
KCR2 160006Z 23003KT 20/02 A3002 RMK A01 T01960016  RH  030%=      5-min Rain = 0
KCR2 160007Z 24003KT 20/01 A3002 RMK A01 T01970005  RH  028%=      5-min Rain = 0
KCR2 160008Z 25003KT 20/01 A3002 RMK A01 T01980008  RH  028%=      5-min Rain = 0
KCR2 160009Z 24003KT 20/00 A3002 RMK A01 T01990000  RH  026%=      5-min Rain = 0
KCR2 160010Z 25003KT 20/M01 A3002 RMK A01 T02011005  RH  025%=      5-min Rain = 0
KCR2 160011Z 25004KT 20/M00 A3002 RMK A01 T02031004  RH  025%=      5-min Rain = 0
KCR2 160012Z 25004KT 21/M00 A3002 RMK A01 T02051003  RH  025%=      5-min Rain = 0
KCR2 160013Z 25004KT 21/00 A3002 RMK A01 T020500-0  RH  025%=      5-min Rain = 0
KCR2 160014Z 25004KT 20/M00 A3002 RMK A01 T02041002  RH  025%=      5-min Rain = 0
KCR2 160015Z 25004KT 20/M00 A3002 RMK A01 T02041002  RH  025%=      5-min Rain = 0
KCR2 160016Z 24004KT 20/00 A3002 RMK A01 T02030001  RH  026%=      5-min Rain = 0
KCR2 160017Z 23003KT 20/00 A3002 RMK A01 T02010002  RH  026%=      5-min Rain = 0
KCR2 160018Z 22003KT 20/00 A3002 RMK A01 T02010003  RH  027%=      5-min Rain = 0
KCR2 160019Z 22003KT 20/00 A3002 RMK A01 T01990000  RH  026%=      5-min Rain = 0
KCR2 160020Z 21003KT 20/M00 A3002 RMK A01 T01991001  RH  026%=      5-min Rain = 0
KCR2 160021Z 22002KT 20/M00 A3002 RMK A01 T01991001  RH  026%=      5-min Rain = 0
KCR2 160022Z 21002KT 20/00 A3002 RMK A01 T01990003  RH  027%=      5-min Rain = 0
KCR2 160023Z 20003KT 20/00 A3002 RMK A01 T01980001  RH  027%=      5-min Rain = 0
KCR2 160024Z 19003KT 20/M00 A3002 RMK A01 T01981001  RH  026%=      5-min Rain = 0
KCR2 160025Z 19003KT 20/00 A3002 RMK A01 T01980002  RH  027%=      5-min Rain = 0
KCR2 160026Z 19003KT 20/01 A3002 RMK A01 T01980009  RH  028%=      5-min Rain = 0
KCR2 160027Z 19004KT 20/01 A3002 RMK A01 T01970011  RH  029%=      5-min Rain = 0
KCR2 160028Z 19004KT 20/02 A3002 RMK A01 T01960016  RH  030%=      5-min Rain = 0
KCR2 160029Z 19005KT 19/02 A3002 RMK A01 T01940023  RH  032%=      5-min Rain = 0
KCR2 160030Z 19005KT 19/03 A3002 RMK A01 T01920025  RH  033%=      5-min Rain = 0
KCR2 160031Z 18005KT 19/03 A3002 RMK A01 T01900028  RH  034%=      5-min Rain = 0
KCR2 160032Z 18006KT 19/03 A3002 RMK A01 T01870031  RH  035%=      5-min Rain = 0
KCR2 160033Z 18006KT 19/04 A3002 RMK A01 T01850037  RH  038%=      5-min Rain = 0
KCR2 160034Z 18007KT 18/04 A3002 RMK A01 T01810038  RH  039%=      5-min Rain = 0
KCR2 160035Z 18007KT 18/04 A3002 RMK A01 T01780038  RH  039%=      5-min Rain = 0
KCR2 160036Z 18007KT 18/04 A3002 RMK A01 T01770036  RH  039%=      5-min Rain = 0
KCR2 160037Z 18008KT 18/04 A3002 RMK A01 T01760037  RH  040%=      5-min Rain = 0
KCR2 160038Z 18008KT 18/04 A3002 RMK A01 T01760036  RH  039%=      5-min Rain = 0
KCR2 160039Z 18008KT 18/04 A3002 RMK A01 T01760039  RH  040%=      5-min Rain = 0
KCR2 160040Z 18009KT 17/04 A3002 RMK A01 T01740042  RH  041%=      5-min Rain = 0
KCR2 160041Z 18010KT 17/04 A3001 RMK A01 T01730037  RH  040%=      5-min Rain = 0
KCR2 160042Z 18010KT 17/04 A3001 RMK A01 T01740036  RH  040%=      5-min Rain = 0
KCR2 160043Z 18010KT 18/04 A3001 RMK A01 T01760037  RH  040%=      5-min Rain = 0
KCR2 160044Z 18010KT 18/04 A3001 RMK A01 T01760039  RH  040%=      5-min Rain = 0
KCR2 160045Z 18010KT 18/04 A3002 RMK A01 T01760040  RH  040%=      5-min Rain = 0
KCR2 160046Z 18009KT 18/04 A3002 RMK A01 T01750042  RH  041%=      5-min Rain = 0
KCR2 160047Z 17008KT 17/04 A3002 RMK A01 T01740043  RH  042%=      5-min Rain = 0
KCR2 160048Z 17008KT 17/04 A3002 RMK A01 T01730044  RH  042%=      5-min Rain = 0
KCR2 160049Z 17008KT 17/05 A3002 RMK A01 T01730045  RH  043%=      5-min Rain = 0
KCR2 160050Z 17008KT 17/05 A3002 RMK A01 T01730046  RH  043%=      5-min Rain = 0
KCR2 160051Z 17008KT 17/05 A3002 RMK A01 T01720048  RH  044%=      5-min Rain = 0
KCR2 160052Z 17008KT 17/05 A3002 RMK A01 T01710048  RH  044%=      5-min Rain = 0
KCR2 160053Z 17008KT 17/05 A3002 RMK A01 T01710049  RH  044%=      5-min Rain = 0
KCR2 160054Z 17007KT 17/05 A3002 RMK A01 T01710050  RH  045%=      5-min Rain = 0
KCR2 160055Z 17007KT 17/05 A3002 RMK A01 T01700050  RH  045%=      5-min Rain = 0
KCR2 160056Z 17008KT 17/05 A3002 RMK A01 T01700050  RH  045%=      5-min Rain = 0
KCR2 160057Z 16007KT 17/05 A3002 RMK A01 T01710050  RH  045%=      5-min Rain = 0
KCR2 160058Z 16007KT 17/05 A3002 RMK A01 T01710051  RH  045%=      5-min Rain = 0
KCR2 160059Z 16007KT 17/05 A3002 RMK A01 T01700052  RH  045%=      5-min Rain = 0
KCR2 160100Z 16007KT 17/05 A3002 RMK A01 T01700052  RH  046%=      5-min Rain = 0
KCR2 160101Z 16006KT 17/05 A3002 RMK A01 T01690054  RH  047%=      5-min Rain = 0
KCR2 160102Z 16006KT 17/05 A3002 RMK A01 T01670054  RH  047%=      5-min Rain = 0
KCR2 160103Z 16007KT 17/06 A3002 RMK A01 T01660056  RH  048%=      5-min Rain = 0
KCR2 160104Z 16006KT 16/06 A3002 RMK A01 T01640056  RH  049%=      5-min Rain = 0
KCR2 160105Z 16006KT 16/06 A3002 RMK A01 T01630057  RH  049%=      5-min Rain = 0
KCR2 160106Z 16006KT 16/06 A3002 RMK A01 T01620058  RH  050%=      5-min Rain = 0
KCR2 160107Z 17006KT 16/06 A3002 RMK A01 T01610058  RH  051%=      5-min Rain = 0
KCR2 160108Z 17007KT 16/06 A3002 RMK A01 T01600058  RH  051%=      5-min Rain = 0
KCR2 160109Z 17007KT 16/06 A3002 RMK A01 T01590059  RH  051%=      5-min Rain = 0
KCR2 160110Z 17007KT 16/06 A3002 RMK A01 T01590059  RH  052%=      5-min Rain = 0
KCR2 160111Z 17007KT 16/06 A3002 RMK A01 T01590059  RH  052%=      5-min Rain = 0
KCR2 160112Z 18006KT 16/06 A3002 RMK A01 T01580059  RH  052%=      5-min Rain = 0
KCR2 160113Z 17006KT 16/06 A3002 RMK A01 T01580060  RH  052%=      5-min Rain = 0
KCR2 160114Z 17006KT 16/06 A3002 RMK A01 T01590058  RH  051%=      5-min Rain = 0
KCR2 160115Z 17007KT 16/06 A3002 RMK A01 T01590058  RH  051%=      5-min Rain = 0
KCR2 160116Z 17008KT 16/06 A3002 RMK A01 T01600058  RH  051%=      5-min Rain = 0
KCR2 160117Z 17009KT 16/06 A3002 RMK A01 T01620057  RH  050%=      5-min Rain = 0
KCR2 160118Z 17009KT 16/06 A3002 RMK A01 T01630058  RH  050%=      5-min Rain = 0
KCR2 160119Z 17009KT 16/06 A3002 RMK A01 T01630058  RH  050%=      5-min Rain = 0
KCR2 160120Z 17010KT 16/06 A3002 RMK A01 T01630057  RH  049%=      5-min Rain = 0
KCR2 160121Z 17011KT 16/06 A3002 RMK A01 T01640057  RH  049%=      5-min Rain = 0
KCR2 160122Z 17010KT 16/06 A3002 RMK A01 T01640056  RH  049%=      5-min Rain = 0
KCR2 160123Z 17010KT 16/06 A3002 RMK A01 T01640056  RH  049%=      5-min Rain = 0
KCR2 160124Z 17010KT 16/06 A3002 RMK A01 T01640056  RH  049%=      5-min Rain = 0
KCR2 160125Z 17010KT 16/06 A3002 RMK A01 T01640056  RH  049%=      5-min Rain = 0
KCR2 160126Z 17009KT 17/06 A3002 RMK A01 T01650055  RH  048%=      5-min Rain = 0
KCR2 160127Z 17010KT 17/06 A3002 RMK A01 T01650056  RH  048%=      5-min Rain = 0
KCR2 160128Z 17009KT 17/06 A3002 RMK A01 T01650056  RH  049%=      5-min Rain = 0
KCR2 160129Z 16010KT 16/06 A3002 RMK A01 T01640056  RH  049%=      5-min Rain = 0
KCR2 160130Z 17010KT 16/06 A3002 RMK A01 T01630055  RH  049%=      5-min Rain = 0
KCR2 160131Z 17010KT 16/06 A3002 RMK A01 T01640055  RH  048%=      5-min Rain = 0
KCR2 160132Z 17010KT 16/06 A3002 RMK A01 T01640055  RH  048%=      5-min Rain = 0
KCR2 160133Z 17009KT 16/06 A3002 RMK A01 T01640055  RH  048%=      5-min Rain = 0
KCR2 160134Z 17010KT 16/06 A3002 RMK A01 T01640055  RH  048%=      5-min Rain = 0
KCR2 160135Z 17009KT 16/06 A3002 RMK A01 T01640055  RH  049%=      5-min Rain = 0
KCR2 160136Z 17009KT 16/06 A3002 RMK A01 T01630056  RH  049%=      5-min Rain = 0
KCR2 160137Z 17009KT 16/06 A3002 RMK A01 T01620056  RH  049%=      5-min Rain = 0
KCR2 160138Z 17010KT 16/06 A3002 RMK A01 T01620056  RH  049%=      5-min Rain = 0
KCR2 160139Z 17010KT 16/06 A3002 RMK A01 T01620055  RH  049%=      5-min Rain = 0
KCR2 160140Z 17009KT 16/06 A3002 RMK A01 T01610055  RH  049%=      5-min Rain = 0
KCR2 160141Z 17009KT 16/06 A3002 RMK A01 T01610055  RH  049%=      5-min Rain = 0
KCR2 160142Z 17010KT 16/05 A3002 RMK A01 T01610054  RH  049%=      5-min Rain = 0
KCR2 160143Z 18009KT 16/05 A3003 RMK A01 T01630054  RH  048%=      5-min Rain = 0
KCR2 160144Z 18009KT 16/05 A3003 RMK A01 T01630054  RH  048%=      5-min Rain = 0
KCR2 160145Z 18009KT 16/05 A3003 RMK A01 T01630054  RH  049%=      5-min Rain = 0
KCR2 160146Z 18010KT 16/05 A3003 RMK A01 T01620054  RH  049%=      5-min Rain = 0
KCR2 160147Z 18009KT 16/05 A3003 RMK A01 T01630053  RH  048%=      5-min Rain = 0
KCR2 160148Z 18010KT 16/05 A3003 RMK A01 T01630053  RH  048%=      5-min Rain = 0
KCR2 160149Z 18010KT 16/05 A3003 RMK A01 T01640053  RH  048%=      5-min Rain = 0
KCR2 160150Z 18010KT 16/05 A3003 RMK A01 T01640052  RH  047%=      5-min Rain = 0
KCR2 160151Z 18011KT 16/05 A3003 RMK A01 T01640052  RH  047%=      5-min Rain = 0
KCR2 160152Z 18011KT 17/05 A3002 RMK A01 T01650051  RH  047%=      5-min Rain = 0
KCR2 160153Z 18010KT 17/05 A3002 RMK A01 T01660050  RH  046%=      5-min Rain = 0
KCR2 160154Z 18012KT 17/05 A3002 RMK A01 T01660051  RH  047%=      5-min Rain = 0
KCR2 160155Z 18012KT 17/05 A3002 RMK A01 T01660051  RH  047%=      5-min Rain = 0
KCR2 160156Z 18012KT 17/05 A3002 RMK A01 T01660051  RH  046%=      5-min Rain = 0
KCR2 160157Z 18013KT 17/05 A3002 RMK A01 T01660049  RH  046%=      5-min Rain = 0
KCR2 160158Z 18012KT 17/05 A3002 RMK A01 T01670050  RH  046%=      5-min Rain = 0
KCR2 160159Z 18012KT 17/05 A3002 RMK A01 T01670050  RH  046%=      5-min Rain = 0
KCR2 160200Z 18014KT 17/05 A3002 RMK A01 T01660050  RH  046%=      5-min Rain = 0
KCR2 160201Z 18012KT 17/05 A3002 RMK A01 T01660049  RH  046%=      5-min Rain = 0
KCR2 160202Z 18012KT 17/05 A3003 RMK A01 T01670049  RH  045%=      5-min Rain = 0
KCR2 160203Z 18013KT 17/05 A3003 RMK A01 T01680048  RH  045%=      5-min Rain = 0
KCR2 160204Z 18013KT 17/05 A3003 RMK A01 T01680048  RH  045%=      5-min Rain = 0
KCR2 160205Z 18012KT 17/05 A3003 RMK A01 T01690047  RH  045%=      5-min Rain = 0
KCR2 160206Z 18013KT 17/05 A3003 RMK A01 T01690047  RH  045%=      5-min Rain = 0
KCR2 160207Z 18012KT 17/05 A3003 RMK A01 T01700047  RH  044%=      5-min Rain = 0
KCR2 160208Z 18012KT 17/05 A3003 RMK A01 T01700047  RH  044%=      5-min Rain = 0
KCR2 160209Z 18011KT 17/05 A3003 RMK A01 T01690048  RH  045%=      5-min Rain = 0
KCR2 160210Z 18011KT 17/05 A3003 RMK A01 T01680048  RH  045%=      5-min Rain = 0
KCR2 160211Z 18012KT 17/05 A3003 RMK A01 T01670048  RH  045%=      5-min Rain = 0
KCR2 160212Z 18011KT 17/05 A3003 RMK A01 T01670048  RH  045%=      5-min Rain = 0
KCR2 160213Z 18012KT 17/05 A3003 RMK A01 T01670048  RH  045%=      5-min Rain = 0
KCR2 160214Z 18011KT 17/05 A3003 RMK A01 T01670047  RH  045%=      5-min Rain = 0
KCR2 160215Z 18011KT 17/05 A3003 RMK A01 T01670048  RH  045%=      5-min Rain = 0
KCR2 160216Z 18011KT 17/05 A3003 RMK A01 T01660048  RH  046%=      5-min Rain = 0
KCR2 160217Z 18011KT 17/05 A3003 RMK A01 T01660047  RH  045%=      5-min Rain = 0
KCR2 160218Z 18010KT 17/05 A3003 RMK A01 T01660048  RH  046%=      5-min Rain = 0
KCR2 160219Z 18011KT 17/05 A3003 RMK A01 T01650048  RH  046%=      5-min Rain = 0
KCR2 160220Z 18010KT 17/05 A3004 RMK A01 T01650048  RH  046%=      5-min Rain = 0
KCR2 160221Z 18010KT 16/05 A3004 RMK A01 T01640048  RH  046%=      5-min Rain = 0
KCR2 160222Z 18009KT 16/05 A3004 RMK A01 T01640048  RH  046%=      5-min Rain = 0
KCR2 160223Z 18009KT 16/05 A3004 RMK A01 T01640048  RH  046%=      5-min Rain = 0
KCR2 160224Z 18010KT 16/05 A3004 RMK A01 T01620049  RH  047%=      5-min Rain = 0
KCR2 160225Z 18010KT 16/05 A3004 RMK A01 T01620047  RH  046%=      5-min Rain = 0
KCR2 160226Z 18009KT 16/05 A3004 RMK A01 T01620047  RH  046%=      5-min Rain = 0
KCR2 160227Z 18009KT 16/05 A3004 RMK A01 T01630046  RH  046%=      5-min Rain = 0
KCR2 160228Z 18009KT 16/05 A3004 RMK A01 T01640048  RH  046%=      5-min Rain = 0
KCR2 160229Z 18009KT 16/05 A3004 RMK A01 T01630048  RH  047%=      5-min Rain = 0
KCR2 160230Z 18009KT 16/05 A3004 RMK A01 T01620048  RH  046%=      5-min Rain = 0
KCR2 160231Z 18009KT 16/05 A3004 RMK A01 T01620048  RH  047%=      5-min Rain = 0
KCR2 160232Z 18009KT 16/05 A3004 RMK A01 T01610047  RH  047%=      5-min Rain = 0
KCR2 160233Z 18011KT 16/05 A3004 RMK A01 T01620047  RH  046%=      5-min Rain = 0
KCR2 160234Z 18010KT 16/05 A3004 RMK A01 T01630046  RH  046%=      5-min Rain = 0
KCR2 160235Z 18008KT 16/05 A3004 RMK A01 T01630047  RH  046%=      5-min Rain = 0
KCR2 160236Z 19009KT 16/05 A3004 RMK A01 T01620047  RH  046%=      5-min Rain = 0
KCR2 160237Z 18009KT 16/05 A3004 RMK A01 T01620046  RH  046%=      5-min Rain = 0
KCR2 160238Z 18009KT 16/05 A3005 RMK A01 T01620046  RH  046%=      5-min Rain = 0
KCR2 160239Z 18009KT 16/05 A3005 RMK A01 T01630046  RH  046%=      5-min Rain = 0
KCR2 160240Z 18009KT 16/05 A3005 RMK A01 T01630048  RH  046%=      5-min Rain = 0
KCR2 160241Z 18009KT 16/05 A3005 RMK A01 T01620047  RH  046%=      5-min Rain = 0
KCR2 160242Z 18010KT 16/05 A3005 RMK A01 T01620047  RH  046%=      5-min Rain = 0
KCR2 160243Z 18010KT 16/05 A3005 RMK A01 T01610047  RH  046%=      5-min Rain = 0
KCR2 160244Z 18009KT 16/05 A3005 RMK A01 T01610046  RH  046%=      5-min Rain = 0
KCR2 160245Z 18010KT 16/05 A3005 RMK A01 T01620047  RH  046%=      5-min Rain = 0
KCR2 160246Z 18009KT 16/05 A3005 RMK A01 T01620046  RH  046%=      5-min Rain = 0
KCR2 160247Z 18010KT 16/05 A3005 RMK A01 T01610047  RH  047%=      5-min Rain = 0
KCR2 160248Z 19010KT 16/05 A3005 RMK A01 T01610047  RH  047%=      5-min Rain = 0
KCR2 160249Z 18009KT 16/05 A3005 RMK A01 T01610047  RH  047%=      5-min Rain = 0
KCR2 160250Z 19009KT 16/05 A3005 RMK A01 T01610046  RH  047%=      5-min Rain = 0
KCR2 160251Z 18009KT 16/05 A3005 RMK A01 T01610047  RH  047%=      5-min Rain = 0
KCR2 160252Z 19009KT 16/05 A3005 RMK A01 T01600048  RH  047%=      5-min Rain = 0
KCR2 160253Z 19009KT 16/05 A3005 RMK A01 T01590048  RH  048%=      5-min Rain = 0
KCR2 160254Z 19009KT 16/05 A3005 RMK A01 T01590048  RH  048%=      5-min Rain = 0
KCR2 160255Z 19009KT 16/05 A3005 RMK A01 T01590047  RH  047%=      5-min Rain = 0
KCR2 160256Z 19010KT 16/05 A3005 RMK A01 T01590047  RH  047%=      5-min Rain = 0
KCR2 160257Z 18011KT 16/05 A3005 RMK A01 T01590047  RH  047%=      5-min Rain = 0
KCR2 160258Z 18011KT 16/05 A3005 RMK A01 T01600046  RH  047%=      5-min Rain = 0
KCR2 160259Z 18011KT 16/05 A3005 RMK A01 T01600047  RH  047%=      5-min Rain = 0
KCR2 160300Z 18011KT 16/05 A3005 RMK A01 T01600046  RH  047%=      5-min Rain = 0
KCR2 160301Z 18012KT 16/05 A3005 RMK A01 T01600046  RH  047%=      5-min Rain = 0
KCR2 160302Z 18012KT 16/05 A3005 RMK A01 T01600047  RH  047%=      5-min Rain = 0
KCR2 160303Z 18012KT 16/05 A3005 RMK A01 T01600046  RH  047%=      5-min Rain = 0
KCR2 160304Z 18011KT 16/05 A3004 RMK A01 T01600047  RH  047%=      5-min Rain = 0
KCR2 160305Z 18012KT 16/05 A3004 RMK A01 T01590046  RH  047%=      5-min Rain = 0
KCR2 160306Z 18014KT 16/05 A3004 RMK A01 T01590045  RH  047%=      5-min Rain = 0
KCR2 160307Z 18014KT 16/05 A3004 RMK A01 T01600046  RH  047%=      5-min Rain = 0
KCR2 160308Z 18014KT 16/05 A3004 RMK A01 T01600045  RH  046%=      5-min Rain = 0
KCR2 160309Z 18013KT 16/05 A3004 RMK A01 T01610045  RH  046%=      5-min Rain = 0
KCR2 160310Z 18014KT 16/05 A3004 RMK A01 T01610045  RH  046%=      5-min Rain = 0
KCR2 160311Z 18013KT 16/04 A3004 RMK A01 T01600044  RH  046%=      5-min Rain = 0
KCR2 160312Z 18011KT 16/05 A3004 RMK A01 T01600045  RH  046%=      5-min Rain = 0
KCR2 160313Z 18012KT 16/05 A3004 RMK A01 T01600045  RH  046%=      5-min Rain = 0
KCR2 160314Z 18013KT 16/05 A3004 RMK A01 T01590046  RH  047%=      5-min Rain = 0
KCR2 160315Z 18013KT 16/05 A3004 RMK A01 T01590045  RH  047%=      5-min Rain = 0
KCR2 160316Z 18013KT 16/04 A3004 RMK A01 T01590044  RH  046%=      5-min Rain = 0
KCR2 160317Z 18013KT 16/04 A3004 RMK A01 T01600044  RH  046%=      5-min Rain = 0
KCR2 160318Z 18013KT 16/05 A3004 RMK A01 T01600045  RH  046%=      5-min Rain = 0
KCR2 160319Z 19014KT 16/05 A3004 RMK A01 T01600045  RH  046%=      5-min Rain = 0
KCR2 160320Z 19012KT 16/04 A3004 RMK A01 T01600044  RH  046%=      5-min Rain = 0
KCR2 160321Z 19013KT 16/04 A3004 RMK A01 T01600044  RH  046%=      5-min Rain = 0
KCR2 160322Z 19013KT 16/04 A3005 RMK A01 T01600044  RH  046%=      5-min Rain = 0
KCR2 160323Z 18012KT 16/05 A3005 RMK A01 T01600045  RH  046%=      5-min Rain = 0
KCR2 160324Z 18014KT 16/05 A3004 RMK A01 T01600045  RH  047%=      5-min Rain = 0
KCR2 160325Z 19013KT 16/04 A3005 RMK A01 T01590044  RH  046%=      5-min Rain = 0
KCR2 160326Z 19013KT 16/04 A3005 RMK A01 T01590044  RH  046%=      5-min Rain = 0
KCR2 160327Z 19013KT 16/05 A3005 RMK A01 T01590045  RH  047%=      5-min Rain = 0
KCR2 160328Z 19013KT 16/05 A3005 RMK A01 T01590045  RH  047%=      5-min Rain = 0
KCR2 160329Z 19012KT 16/05 A3005 RMK A01 T01590045  RH  047%=      5-min Rain = 0
KCR2 160330Z 19013KT 16/05 A3005 RMK A01 T01580045  RH  047%=      5-min Rain = 0
KCR2 160331Z 19013KT 16/05 A3005 RMK A01 T01580045  RH  047%=      5-min Rain = 0
KCR2 160332Z 19014KT 16/05 A3005 RMK A01 T01570045  RH  047%=      5-min Rain = 0
KCR2 160333Z 19013KT 16/05 A3005 RMK A01 T01580045  RH  047%=      5-min Rain = 0
KCR2 160334Z 18014KT 16/05 A3005 RMK A01 T01580045  RH  047%=      5-min Rain = 0
KCR2 160335Z 19013KT 16/05 A3005 RMK A01 T01580046  RH  047%=      5-min Rain = 0
KCR2 160336Z 19012G17KT 16/05 A3005 RMK A01 T01570046  RH  047%=      5-min Rain = 0
KCR2 160337Z 19014KT 16/05 A3005 RMK A01 T01570046  RH  048%=      5-min Rain = 0
KCR2 160338Z 19014KT 16/05 A3005 RMK A01 T01570046  RH  048%=      5-min Rain = 0
KCR2 160339Z 19013KT 16/05 A3005 RMK A01 T01560046  RH  048%=      5-min Rain = 0
KCR2 160340Z 19013KT 16/05 A3005 RMK A01 T01560045  RH  047%=      5-min Rain = 0
KCR2 160341Z 19013KT 16/05 A3005 RMK A01 T01560045  RH  048%=      5-min Rain = 0
KCR2 160342Z 19013KT 16/05 A3005 RMK A01 T01570046  RH  048%=      5-min Rain = 0
KCR2 160343Z 19015KT 16/05 A3005 RMK A01 T01570045  RH  047%=      5-min Rain = 0
KCR2 160344Z 19015KT 16/04 A3005 RMK A01 T01570044  RH  047%=      5-min Rain = 0
KCR2 160345Z 19013KT 16/05 A3005 RMK A01 T01580045  RH  047%=      5-min Rain = 0
KCR2 160346Z 19014KT 16/05 A3005 RMK A01 T01570045  RH  047%=      5-min Rain = 0
KCR2 160347Z 19014KT 16/05 A3005 RMK A01 T01570045  RH  047%=      5-min Rain = 0
KCR2 160348Z 19014KT 16/05 A3005 RMK A01 T01570045  RH  047%=      5-min Rain = 0
KCR2 160349Z 18015KT 16/04 A3005 RMK A01 T01560044  RH  047%=      5-min Rain = 0
KCR2 160350Z 19015KT 16/04 A3005 RMK A01 T01570044  RH  047%=      5-min Rain = 0
KCR2 160351Z 19015KT 16/04 A3005 RMK A01 T01570044  RH  047%=      5-min Rain = 0
KCR2 160352Z 19014KT 16/05 A3005 RMK A01 T01560045  RH  047%=      5-min Rain = 0
KCR2 160353Z 19014KT 16/05 A3005 RMK A01 T01560045  RH  048%=      5-min Rain = 0
KCR2 160354Z 19014KT 16/05 A3005 RMK A01 T01550045  RH  048%=      5-min Rain = 0
KCR2 160355Z 19013KT 16/05 A3005 RMK A01 T01550045  RH  048%=      5-min Rain = 0
KCR2 160356Z 19015KT 16/05 A3005 RMK A01 T01550045  RH  048%=      5-min Rain = 0
KCR2 160357Z 19013KT 16/04 A3005 RMK A01 T01550044  RH  048%=      5-min Rain = 0
KCR2 160358Z 19014KT 16/05 A3005 RMK A01 T01550046  RH  048%=      5-min Rain = 0
KCR2 160359Z 19015KT 16/05 A3005 RMK A01 T01550045  RH  048%=      5-min Rain = 0
KCR2 160400Z 18014KT 16/05 A3005 RMK A01 T01550045  RH  048%=      5-min Rain = 0
KCR2 160401Z 18016KT 16/05 A3005 RMK A01 T01550045  RH  048%=      5-min Rain = 0
KCR2 160402Z 18015KT 16/05 A3005 RMK A01 T01550045  RH  048%=      5-min Rain = 0
KCR2 160403Z 19015KT 16/05 A3005 RMK A01 T01550046  RH  048%=      5-min Rain = 0
KCR2 160404Z 18016KT 16/05 A3005 RMK A01 T01550045  RH  048%=      5-min Rain = 0
KCR2 160405Z 18015KT 16/05 A3005 RMK A01 T01550045  RH  048%=      5-min Rain = 0
KCR2 160406Z 18017KT 16/05 A3005 RMK A01 T01550045  RH  048%=      5-min Rain = 0
KCR2 160407Z 19016KT 16/05 A3005 RMK A01 T01550045  RH  048%=      5-min Rain = 0
KCR2 160408Z 18017KT 16/05 A3005 RMK A01 T01550045  RH  048%=      5-min Rain = 0
KCR2 160409Z 19016KT 16/05 A3005 RMK A01 T01550045  RH  048%=      5-min Rain = 0
KCR2 160410Z 18017KT 16/05 A3005 RMK A01 T01550045  RH  048%=      5-min Rain = 0
KCR2 160411Z 19014KT 16/05 A3005 RMK A01 T01550046  RH  048%=      5-min Rain = 0
KCR2 160412Z 19014KT 15/05 A3005 RMK A01 T01530046  RH  049%=      5-min Rain = 0
KCR2 160413Z 19016KT 15/05 A3005 RMK A01 T01530046  RH  049%=      5-min Rain = 0
KCR2 160414Z 19015KT 15/05 A3005 RMK A01 T01530046  RH  049%=      5-min Rain = 0
KCR2 160415Z 19013KT 15/05 A3005 RMK A01 T01530047  RH  049%=      5-min Rain = 0
KCR2 160416Z 18016KT 15/05 A3005 RMK A01 T01530047  RH  049%=      5-min Rain = 0
KCR2 160417Z 18015KT 15/05 A3005 RMK A01 T01530047  RH  049%=      5-min Rain = 0
KCR2 160418Z 19016KT 15/05 A3005 RMK A01 T01530048  RH  049%=      5-min Rain = 0
KCR2 160419Z 19013KT 15/05 A3005 RMK A01 T01520048  RH  050%=      5-min Rain = 0
KCR2 160420Z 19015KT 15/05 A3005 RMK A01 T01510048  RH  050%=      5-min Rain = 0
KCR2 160421Z 19013KT 15/05 A3005 RMK A01 T01510048  RH  050%=      5-min Rain = 0
KCR2 160422Z 19014KT 15/05 A3005 RMK A01 T01510048  RH  050%=      5-min Rain = 0
KCR2 160423Z 19014KT 15/05 A3005 RMK A01 T01500049  RH  051%=      5-min Rain = 0
KCR2 160424Z 19014KT 15/05 A3005 RMK A01 T01500048  RH  051%=      5-min Rain = 0
KCR2 160425Z 18015KT 15/05 A3005 RMK A01 T01500048  RH  051%=      5-min Rain = 0
KCR2 160426Z 19014KT 15/05 A3005 RMK A01 T01500048  RH  050%=      5-min Rain = 0
KCR2 160427Z 19013KT 15/05 A3005 RMK A01 T01500049  RH  051%=      5-min Rain = 0
KCR2 160428Z 19014KT 15/05 A3005 RMK A01 T01500050  RH  051%=      5-min Rain = 0
KCR2 160429Z 19015KT 15/05 A3005 RMK A01 T01490049  RH  051%=      5-min Rain = 0
KCR2 160430Z 19014KT 15/05 A3005 RMK A01 T01500049  RH  051%=      5-min Rain = 0
KCR2 160431Z 19014KT 15/05 A3005 RMK A01 T01500049  RH  051%=      5-min Rain = 0
KCR2 160432Z 19013KT 15/05 A3005 RMK A01 T01500050  RH  051%=      5-min Rain = 0
KCR2 160433Z 18014KT 15/05 A3005 RMK A01 T01490050  RH  052%=      5-min Rain = 0
KCR2 160434Z 19015KT 15/05 A3005 RMK A01 T01480050  RH  052%=      5-min Rain = 0
KCR2 160435Z 18013KT 15/05 A3005 RMK A01 T01480050  RH  052%=      5-min Rain = 0
KCR2 160436Z 19013KT 15/05 A3005 RMK A01 T01480051  RH  052%=      5-min Rain = 0
KCR2 160437Z 19014KT 15/05 A3005 RMK A01 T01470051  RH  052%=      5-min Rain = 0
KCR2 160438Z 19013KT 15/05 A3006 RMK A01 T01470051  RH  052%=      5-min Rain = 0
KCR2 160439Z 19013KT 15/05 A3006 RMK A01 T01470051  RH  052%=      5-min Rain = 0
KCR2 160440Z 19014KT 15/05 A3006 RMK A01 T01470051  RH  053%=      5-min Rain = 0
KCR2 160441Z 19011KT 15/05 A3006 RMK A01 T01470052  RH  053%=      5-min Rain = 0
KCR2 160442Z 19012KT 15/05 A3006 RMK A01 T01460052  RH  053%=      5-min Rain = 0
KCR2 160443Z 19011KT 15/05 A3006 RMK A01 T01460052  RH  053%=      5-min Rain = 0
KCR2 160444Z 19011KT 15/05 A3006 RMK A01 T01450052  RH  053%=      5-min Rain = 0
KCR2 160445Z 19013KT 15/05 A3006 RMK A01 T01450052  RH  053%=      5-min Rain = 0
KCR2 160446Z 19012KT 15/05 A3006 RMK A01 T01450052  RH  054%=      5-min Rain = 0
KCR2 160447Z 19013KT 15/05 A3006 RMK A01 T01450053  RH  054%=      5-min Rain = 0
KCR2 160448Z 19012KT 15/05 A3006 RMK A01 T01460052  RH  054%=      5-min Rain = 0
KCR2 160449Z 19012KT 15/05 A3006 RMK A01 T01450053  RH  054%=      5-min Rain = 0
KCR2 160450Z 19014KT 15/05 A3006 RMK A01 T01450053  RH  054%=      5-min Rain = 0
KCR2 160451Z 19013KT 15/05 A3006 RMK A01 T01450053  RH  054%=      5-min Rain = 0
KCR2 160452Z 19013KT 15/05 A3006 RMK A01 T01450054  RH  054%=      5-min Rain = 0
KCR2 160453Z 19014KT 15/05 A3006 RMK A01 T01450054  RH  054%=      5-min Rain = 0
KCR2 160454Z 19012KT 15/05 A3006 RMK A01 T01450054  RH  055%=      5-min Rain = 0
KCR2 160455Z 19012KT 14/06 A3006 RMK A01 T01440055  RH  055%=      5-min Rain = 0
KCR2 160456Z 19012KT 14/06 A3006 RMK A01 T01440056  RH  055%=      5-min Rain = 0
KCR2 160457Z 19012KT 14/06 A3006 RMK A01 T01430056  RH  056%=      5-min Rain = 0
KCR2 160458Z 19012KT 14/06 A3006 RMK A01 T01430056  RH  056%=      5-min Rain = 0
KCR2 160459Z 19013KT 14/06 A3006 RMK A01 T01430056  RH  056%=      5-min Rain = 0
KCR2 160500Z 19014KT 14/06 A3006 RMK A01 T01420056  RH  056%=      5-min Rain = 0
KCR2 160501Z 19012KT 14/06 A3006 RMK A01 T01420057  RH  056%=      5-min Rain = 0
KCR2 160502Z 19013KT 14/06 A3006 RMK A01 T01420057  RH  056%=      5-min Rain = 0
KCR2 160503Z 19013KT 14/06 A3006 RMK A01 T01420057  RH  056%=      5-min Rain = 0
KCR2 160504Z 19013KT 14/06 A3006 RMK A01 T01420058  RH  057%=      5-min Rain = 0
KCR2 160505Z 19013KT 14/06 A3005 RMK A01 T01410058  RH  057%=      5-min Rain = 0
KCR2 160506Z 19013KT 14/06 A3005 RMK A01 T01420058  RH  057%=      5-min Rain = 0
KCR2 160507Z 19014KT 14/06 A3006 RMK A01 T01420059  RH  057%=      5-min Rain = 0
KCR2 160508Z 19015KT 14/06 A3005 RMK A01 T01420060  RH  058%=      5-min Rain = 0
KCR2 160509Z 19013KT 14/06 A3006 RMK A01 T01410060  RH  058%=      5-min Rain = 0
KCR2 160510Z 19014KT 14/06 A3006 RMK A01 T01410060  RH  058%=      5-min Rain = 0
KCR2 160511Z 19015KT 14/06 A3005 RMK A01 T01410061  RH  058%=      5-min Rain = 0
KCR2 160512Z 19013KT 14/06 A3005 RMK A01 T01410061  RH  059%=      5-min Rain = 0
KCR2 160513Z 19016KT 14/06 A3005 RMK A01 T01400062  RH  059%=      5-min Rain = 0
KCR2 160514Z 19015KT 14/06 A3006 RMK A01 T01400061  RH  059%=      5-min Rain = 0
KCR2 160515Z 19015KT 14/06 A3005 RMK A01 T01410062  RH  059%=      5-min Rain = 0
KCR2 160516Z 19014KT 14/06 A3005 RMK A01 T01400062  RH  059%=      5-min Rain = 0
KCR2 160517Z 19015KT 14/06 A3005 RMK A01 T01400063  RH  059%=      5-min Rain = 0
KCR2 160518Z 19014KT 14/06 A3005 RMK A01 T01400062  RH  060%=      5-min Rain = 0
KCR2 160519Z 19014KT 14/06 A3005 RMK A01 T01400063  RH  060%=      5-min Rain = 0
KCR2 160520Z 19014KT 14/06 A3005 RMK A01 T01400063  RH  060%=      5-min Rain = 0
KCR2 160521Z 19015KT 14/06 A3005 RMK A01 T01390063  RH  060%=      5-min Rain = 0
KCR2 160522Z 19016KT 14/06 A3005 RMK A01 T01400063  RH  060%=      5-min Rain = 0
KCR2 160523Z 19014KT 14/06 A3005 RMK A01 T01400063  RH  060%=      5-min Rain = 0
KCR2 160524Z 19013KT 14/06 A3005 RMK A01 T01400063  RH  060%=      5-min Rain = 0
KCR2 160525Z 19013KT 14/06 A3005 RMK A01 T01390064  RH  060%=      5-min Rain = 0
KCR2 160526Z 19013KT 14/06 A3005 RMK A01 T01380064  RH  061%=      5-min Rain = 0
KCR2 160527Z 19014KT 14/06 A3005 RMK A01 T01380064  RH  061%=      5-min Rain = 0
KCR2 160528Z 19015KT 14/06 A3005 RMK A01 T01380064  RH  061%=      5-min Rain = 0
KCR2 160529Z 19013KT 14/06 A3005 RMK A01 T01390064  RH  061%=      5-min Rain = 0
KCR2 160530Z 19012KT 14/07 A3005 RMK A01 T01390065  RH  061%=      5-min Rain = 0
KCR2 160531Z 19011KT 14/07 A3005 RMK A01 T01380065  RH  061%=      5-min Rain = 0
KCR2 160532Z 19013KT 14/06 A3005 RMK A01 T01370064  RH  061%=      5-min Rain = 0
KCR2 160533Z 19014KT 14/06 A3005 RMK A01 T01370064  RH  061%=      5-min Rain = 0
KCR2 160534Z 19013KT 14/06 A3005 RMK A01 T01380064  RH  061%=      5-min Rain = 0
KCR2 160535Z 19012KT 14/06 A3005 RMK A01 T01390064  RH  061%=      5-min Rain = 0
KCR2 160536Z 19010KT 14/07 A3005 RMK A01 T01380065  RH  061%=      5-min Rain = 0
KCR2 160537Z 19012KT 14/07 A3005 RMK A01 T01370065  RH  061%=      5-min Rain = 0
KCR2 160538Z 19013KT 14/07 A3005 RMK A01 T01370065  RH  061%=      5-min Rain = 0
KCR2 160539Z 19013KT 14/06 A3005 RMK A01 T01380064  RH  061%=      5-min Rain = 0
KCR2 160540Z 19013KT 14/07 A3005 RMK A01 T01390065  RH  061%=      5-min Rain = 0
KCR2 160541Z 19013KT 14/07 A3005 RMK A01 T01380065  RH  061%=      5-min Rain = 0
KCR2 160542Z 19014KT 14/07 A3005 RMK A01 T01380065  RH  061%=      5-min Rain = 0
KCR2 160543Z 19013KT 14/06 A3005 RMK A01 T01380064  RH  061%=      5-min Rain = 0
KCR2 160544Z 20013KT 14/06 A3005 RMK A01 T01390064  RH  061%=      5-min Rain = 0
KCR2 160545Z 20010KT 14/06 A3005 RMK A01 T01390064  RH  061%=      5-min Rain = 0
KCR2 160546Z 20012KT 14/06 A3005 RMK A01 T01390064  RH  061%=      5-min Rain = 0
KCR2 160547Z 20012KT 14/06 A3005 RMK A01 T01390064  RH  061%=      5-min Rain = 0
KCR2 160548Z 19012KT 14/07 A3005 RMK A01 T01390065  RH  061%=      5-min Rain = 0
KCR2 160549Z 19012KT 14/07 A3005 RMK A01 T01380065  RH  062%=      5-min Rain = 0
KCR2 160550Z 19012KT 14/07 A3005 RMK A01 T01370065  RH  062%=      5-min Rain = 0
KCR2 160551Z 19013KT 14/07 A3005 RMK A01 T01370066  RH  062%=      5-min Rain = 0
KCR2 160552Z 19012KT 14/07 A3004 RMK A01 T01370065  RH  062%=      5-min Rain = 0
KCR2 160553Z 19012KT 14/07 A3004 RMK A01 T01370066  RH  062%=      5-min Rain = 0
KCR2 160554Z 19013KT 14/07 A3004 RMK A01 T01360066  RH  062%=      5-min Rain = 0
KCR2 160555Z 19013KT 14/07 A3004 RMK A01 T01360066  RH  063%=      5-min Rain = 0
KCR2 160556Z 19013KT 14/07 A3004 RMK A01 T01360066  RH  062%=      5-min Rain = 0
KCR2 160557Z 19014KT 14/07 A3004 RMK A01 T01360065  RH  062%=      5-min Rain = 0
KCR2 160558Z 19014KT 14/07 A3004 RMK A01 T01370065  RH  062%=      5-min Rain = 0
KCR2 160559Z 20012KT 14/07 A3004 RMK A01 T01370066  RH  062%=      5-min Rain = 0

Page generated in 0.077 seconds.